Observation data for Claude 12 Southwest on 12/10/2019      Previous  Date       Current Mesonet Observations  Soil Data  Daily Summary Page  Observations in Plain Language
KCL1 100600Z 03005KT M02/M09 A3015 RMK A01 T10231090  RH  060%=      5-min Rain = 0
KCL1 100601Z 03005KT M02/M09 A3015 RMK A01 T10231090  RH  060%=      5-min Rain = 0
KCL1 100602Z 04005KT M02/M09 A3015 RMK A01 T10231090  RH  060%=      5-min Rain = 0
KCL1 100603Z 04004KT M02/M09 A3015 RMK A01 T10231090  RH  060%=      5-min Rain = 0
KCL1 100604Z 04004KT M02/M09 A3015 RMK A01 T10241091  RH  060%=      5-min Rain = 0
KCL1 100605Z 04005KT M03/M09 A3015 RMK A01 T10251092  RH  060%=      5-min Rain = 0
KCL1 100606Z 04005KT M03/M09 A3015 RMK A01 T10251091  RH  060%=      5-min Rain = 0
KCL1 100607Z 04005KT M03/M09 A3015 RMK A01 T10251091  RH  060%=      5-min Rain = 0
KCL1 100608Z 04005KT M03/M09 A3015 RMK A01 T10251091  RH  061%=      5-min Rain = 0
KCL1 100609Z 04005KT M03/M09 A3015 RMK A01 T10261091  RH  061%=      5-min Rain = 0
KCL1 100610Z 04005KT M03/M09 A3015 RMK A01 T10271091  RH  061%=      5-min Rain = 0
KCL1 100611Z 04005KT M03/M09 A3015 RMK A01 T10271091  RH  062%=      5-min Rain = 0
KCL1 100612Z 04005KT M03/M09 A3015 RMK A01 T10271091  RH  062%=      5-min Rain = 0
KCL1 100613Z 04004KT M03/M09 A3015 RMK A01 T10271091  RH  062%=      5-min Rain = 0
KCL1 100614Z 04004KT M03/M09 A3015 RMK A01 T10281091  RH  062%=      5-min Rain = 0
KCL1 100615Z 04004KT M03/M09 A3015 RMK A01 T10281091  RH  062%=      5-min Rain = 0
KCL1 100616Z 04004KT M03/M09 A3015 RMK A01 T10271091  RH  062%=      5-min Rain = 0
KCL1 100617Z 03004KT M03/M09 A3015 RMK A01 T10271091  RH  061%=      5-min Rain = 0
KCL1 100618Z 03004KT M03/M09 A3015 RMK A01 T10271091  RH  061%=      5-min Rain = 0
KCL1 100619Z 02004KT M03/M09 A3015 RMK A01 T10271091  RH  061%=      5-min Rain = 0
KCL1 100620Z 02004KT M03/M09 A3015 RMK A01 T10271091  RH  062%=      5-min Rain = 0
KCL1 100621Z 02004KT M03/M09 A3015 RMK A01 T10281091  RH  062%=      5-min Rain = 0
KCL1 100622Z 02004KT M03/M09 A3015 RMK A01 T10281091  RH  062%=      5-min Rain = 0
KCL1 100623Z 02005KT M03/M09 A3015 RMK A01 T10281091  RH  062%=      5-min Rain = 0
KCL1 100624Z 01004KT M03/M09 A3016 RMK A01 T10281090  RH  062%=      5-min Rain = 0
KCL1 100625Z 01004KT M03/M09 A3016 RMK A01 T10281089  RH  062%=      5-min Rain = 0
KCL1 100626Z 01004KT M03/M09 A3015 RMK A01 T10281088  RH  063%=      5-min Rain = 0
KCL1 100627Z 01005KT M03/M09 A3015 RMK A01 T10281087  RH  064%=      5-min Rain = 0
KCL1 100628Z 01005KT M03/M09 A3015 RMK A01 T10271086  RH  064%=      5-min Rain = 0
KCL1 100629Z 01005KT M03/M09 A3015 RMK A01 T10281087  RH  064%=      5-min Rain = 0
KCL1 100630Z 01005KT M03/M09 A3015 RMK A01 T10291087  RH  064%=      5-min Rain = 0
KCL1 100631Z 01005KT M03/M09 A3015 RMK A01 T10301087  RH  065%=      5-min Rain = 0
KCL1 100632Z 01006KT M03/M09 A3015 RMK A01 T10301087  RH  065%=      5-min Rain = 0
KCL1 100633Z 01006KT M03/M09 A3015 RMK A01 T10311087  RH  065%=      5-min Rain = 0
KCL1 100634Z 01006KT M03/M09 A3015 RMK A01 T10321088  RH  065%=      5-min Rain = 0
KCL1 100635Z 01006KT M03/M09 A3015 RMK A01 T10321087  RH  065%=      5-min Rain = 0
KCL1 100636Z 01006KT M03/M09 A3014 RMK A01 T10321087  RH  066%=      5-min Rain = 0
KCL1 100637Z 01006KT M03/M09 A3014 RMK A01 T10321087  RH  066%=      5-min Rain = 0
KCL1 100638Z 01006KT M03/M09 A3014 RMK A01 T10331088  RH  066%=      5-min Rain = 0
KCL1 100639Z 01006KT M03/M09 A3015 RMK A01 T10321087  RH  066%=      5-min Rain = 0
KCL1 100640Z 01005KT M03/M09 A3015 RMK A01 T10331087  RH  066%=      5-min Rain = 0
KCL1 100641Z 01005KT M03/M09 A3015 RMK A01 T10331088  RH  066%=      5-min Rain = 0
KCL1 100642Z 02005KT M03/M09 A3015 RMK A01 T10321088  RH  065%=      5-min Rain = 0
KCL1 100643Z 02004KT M03/M09 A3015 RMK A01 T10321088  RH  065%=      5-min Rain = 0
KCL1 100644Z 02004KT M03/M09 A3015 RMK A01 T10311088  RH  065%=      5-min Rain = 0
KCL1 100645Z 02004KT M03/M09 A3015 RMK A01 T10311088  RH  065%=      5-min Rain = 0
KCL1 100646Z 02005KT M03/M09 A3015 RMK A01 T10311089  RH  064%=      5-min Rain = 0
KCL1 100647Z 02004KT M03/M09 A3015 RMK A01 T10301089  RH  064%=      5-min Rain = 0
KCL1 100648Z 02004KT M03/M09 A3015 RMK A01 T10311089  RH  064%=      5-min Rain = 0
KCL1 100649Z 02004KT M03/M09 A3015 RMK A01 T10301089  RH  064%=      5-min Rain = 0
KCL1 100650Z 02004KT M03/M09 A3015 RMK A01 T10301089  RH  064%=      5-min Rain = 0
KCL1 100651Z 02005KT M03/M09 A3015 RMK A01 T10291089  RH  064%=      5-min Rain = 0
KCL1 100652Z 02005KT M03/M09 A3015 RMK A01 T10281088  RH  063%=      5-min Rain = 0
KCL1 100653Z 02005KT M03/M09 A3015 RMK A01 T10281088  RH  063%=      5-min Rain = 0
KCL1 100654Z 02005KT M03/M09 A3015 RMK A01 T10291088  RH  064%=      5-min Rain = 0
KCL1 100655Z 02005KT M03/M09 A3015 RMK A01 T10291088  RH  064%=      5-min Rain = 0
KCL1 100656Z 02006KT M03/M09 A3015 RMK A01 T10291088  RH  064%=      5-min Rain = 0
KCL1 100657Z 02005KT M03/M09 A3015 RMK A01 T10301089  RH  064%=      5-min Rain = 0
KCL1 100658Z 02005KT M03/M09 A3015 RMK A01 T10301088  RH  064%=      5-min Rain = 0
KCL1 100659Z 02005KT M03/M09 A3015 RMK A01 T10301088  RH  064%=      5-min Rain = 0
KCL1 100700Z 02005KT M03/M09 A3015 RMK A01 T10301087  RH  065%=      5-min Rain = 0
KCL1 100701Z 02005KT M03/M09 A3015 RMK A01 T10301087  RH  065%=      5-min Rain = 0
KCL1 100702Z 02005KT M03/M09 A3015 RMK A01 T10301087  RH  065%=      5-min Rain = 0
KCL1 100703Z 02005KT M03/M09 A3015 RMK A01 T10301087  RH  065%=      5-min Rain = 0
KCL1 100704Z 02005KT M03/M09 A3015 RMK A01 T10311087  RH  065%=      5-min Rain = 0
KCL1 100705Z 02005KT M03/M09 A3015 RMK A01 T10311087  RH  065%=      5-min Rain = 0
KCL1 100706Z 02004KT M03/M09 A3015 RMK A01 T10311087  RH  065%=      5-min Rain = 0
KCL1 100707Z 02005KT M03/M09 A3015 RMK A01 T10311087  RH  065%=      5-min Rain = 0
KCL1 100708Z 01005KT M03/M09 A3015 RMK A01 T10311086  RH  066%=      5-min Rain = 0
KCL1 100709Z 01005KT M03/M09 A3015 RMK A01 T10311086  RH  066%=      5-min Rain = 0
KCL1 100710Z 01005KT M03/M09 A3015 RMK A01 T10321085  RH  066%=      5-min Rain = 0
KCL1 100711Z 01004KT M03/M09 A3015 RMK A01 T10321085  RH  067%=      5-min Rain = 0
KCL1 100712Z 01004KT M03/M08 A3015 RMK A01 T10321084  RH  067%=      5-min Rain = 0
KCL1 100713Z 02003KT M03/M09 A3015 RMK A01 T10321085  RH  067%=      5-min Rain = 0
KCL1 100714Z 02003KT M03/M09 A3015 RMK A01 T10321085  RH  067%=      5-min Rain = 0
KCL1 100715Z 02003KT M03/M08 A3015 RMK A01 T10311084  RH  067%=      5-min Rain = 0
KCL1 100716Z 01003KT M03/M08 A3015 RMK A01 T10311084  RH  067%=      5-min Rain = 0
KCL1 100717Z 01003KT M03/M08 A3015 RMK A01 T10311084  RH  067%=      5-min Rain = 0
KCL1 100718Z 35003KT M03/M08 A3015 RMK A01 T10311084  RH  067%=      5-min Rain = 0
KCL1 100719Z 34004KT M03/M08 A3015 RMK A01 T10311084  RH  067%=      5-min Rain = 0
KCL1 100720Z 34004KT M03/M08 A3015 RMK A01 T10321084  RH  067%=      5-min Rain = 0
KCL1 100721Z 34004KT M03/M08 A3015 RMK A01 T10321084  RH  067%=      5-min Rain = 0
KCL1 100722Z 33003KT M03/M08 A3015 RMK A01 T10321084  RH  067%=      5-min Rain = 0
KCL1 100723Z 33003KT M03/M08 A3015 RMK A01 T10331084  RH  068%=      5-min Rain = 0
KCL1 100724Z 33003KT M03/M08 A3015 RMK A01 T10331084  RH  068%=      5-min Rain = 0
KCL1 100725Z 33003KT M03/M08 A3016 RMK A01 T10321084  RH  068%=      5-min Rain = 0
KCL1 100726Z 32002KT M03/M08 A3016 RMK A01 T10311083  RH  067%=      5-min Rain = 0
KCL1 100727Z 33002KT M03/M08 A3016 RMK A01 T10311083  RH  067%=      5-min Rain = 0
KCL1 100728Z 33002KT M03/M08 A3016 RMK A01 T10311083  RH  067%=      5-min Rain = 0
KCL1 100729Z 33002KT M03/M08 A3016 RMK A01 T10301082  RH  067%=      5-min Rain = 0
KCL1 100730Z 33002KT M03/M08 A3016 RMK A01 T10291082  RH  067%=      5-min Rain = 0
KCL1 100731Z 33002KT M03/M08 A3016 RMK A01 T10281083  RH  066%=      5-min Rain = 0
KCL1 100732Z 32001KT M03/M08 A3016 RMK A01 T10281083  RH  066%=      5-min Rain = 0
KCL1 100733Z 31001KT M03/M08 A3016 RMK A01 T10271083  RH  065%=      5-min Rain = 0
KCL1 100734Z 30002KT M03/M08 A3016 RMK A01 T10261083  RH  065%=      5-min Rain = 0
KCL1 100735Z 29002KT M03/M08 A3016 RMK A01 T10261083  RH  065%=      5-min Rain = 0
KCL1 100736Z 29002KT M03/M08 A3017 RMK A01 T10251083  RH  065%=      5-min Rain = 0
KCL1 100737Z 29001KT M03/M08 A3017 RMK A01 T10251083  RH  065%=      5-min Rain = 0
KCL1 100738Z 29001KT M03/M08 A3017 RMK A01 T10251083  RH  064%=      5-min Rain = 0
KCL1 100739Z 29000KT M03/M08 A3017 RMK A01 T10251083  RH  064%=      5-min Rain = 0
KCL1 100740Z 22001KT M03/M08 A3017 RMK A01 T10251083  RH  064%=      5-min Rain = 0
KCL1 100741Z 21001KT M03/M08 A3017 RMK A01 T10251083  RH  064%=      5-min Rain = 0
KCL1 100742Z 20001KT M02/M08 A3017 RMK A01 T10241083  RH  064%=      5-min Rain = 0
KCL1 100743Z 20001KT M02/M08 A3017 RMK A01 T10241083  RH  064%=      5-min Rain = 0
KCL1 100744Z 22001KT M02/M08 A3017 RMK A01 T10231084  RH  063%=      5-min Rain = 0
KCL1 100745Z 22001KT M02/M09 A3017 RMK A01 T10231085  RH  063%=      5-min Rain = 0
KCL1 100746Z 22001KT M02/M09 A3017 RMK A01 T10231086  RH  062%=      5-min Rain = 0
KCL1 100747Z 22001KT M02/M09 A3017 RMK A01 T10231086  RH  062%=      5-min Rain = 0
KCL1 100748Z 22001KT M02/M09 A3017 RMK A01 T10221086  RH  061%=      5-min Rain = 0
KCL1 100749Z 22002KT M02/M09 A3017 RMK A01 T10211086  RH  061%=      5-min Rain = 0
KCL1 100750Z 22002KT M02/M09 A3017 RMK A01 T10211086  RH  061%=      5-min Rain = 0
KCL1 100751Z 22002KT M02/M08 A3017 RMK A01 T10201084  RH  061%=      5-min Rain = 0
KCL1 100752Z 22002KT M02/M08 A3017 RMK A01 T10191084  RH  061%=      5-min Rain = 0
KCL1 100753Z 23001KT M02/M08 A3017 RMK A01 T10191084  RH  061%=      5-min Rain = 0
KCL1 100754Z 23001KT M02/M09 A3017 RMK A01 T10191085  RH  061%=      5-min Rain = 0
KCL1 100755Z 24001KT M02/M09 A3017 RMK A01 T10181085  RH  060%=      5-min Rain = 0
KCL1 100756Z 24002KT M02/M08 A3017 RMK A01 T10181084  RH  061%=      5-min Rain = 0
KCL1 100757Z 25002KT M02/M08 A3017 RMK A01 T10181083  RH  061%=      5-min Rain = 0
KCL1 100758Z 25002KT M02/M08 A3017 RMK A01 T10181076  RH  065%=      5-min Rain = 0
KCL1 100759Z 26001KT M02/M07 A3017 RMK A01 T10191074  RH  066%=      5-min Rain = 0
KCL1 100800Z 27002KT M02/M08 A3018 RMK A01 T10201075  RH  066%=      5-min Rain = 0
KCL1 100801Z 27002KT M02/M08 A3018 RMK A01 T10211075  RH  067%=      5-min Rain = 0
KCL1 100802Z 27001KT M02/M08 A3018 RMK A01 T10211076  RH  066%=      5-min Rain = 0
KCL1 100803Z 25002KT M02/M08 A3018 RMK A01 T10211081  RH  064%=      5-min Rain = 0
KCL1 100804Z 24002KT M02/M08 A3018 RMK A01 T10211083  RH  063%=      5-min Rain = 0
KCL1 100805Z 24002KT M02/M08 A3018 RMK A01 T10211082  RH  063%=      5-min Rain = 0
KCL1 100806Z 24002KT M02/M08 A3018 RMK A01 T10201081  RH  063%=      5-min Rain = 0
KCL1 100807Z 24001KT M02/M08 A3018 RMK A01 T10201082  RH  062%=      5-min Rain = 0
KCL1 100808Z 24001KT M02/M08 A3018 RMK A01 T10191083  RH  062%=      5-min Rain = 0
KCL1 100809Z 24001KT M02/M08 A3018 RMK A01 T10191083  RH  061%=      5-min Rain = 0
KCL1 100810Z 24001KT M02/M09 A3018 RMK A01 T10181085  RH  060%=      5-min Rain = 0
KCL1 100811Z 24001KT M02/M09 A3018 RMK A01 T10171086  RH  060%=      5-min Rain = 0
KCL1 100812Z 24001KT M02/M09 A3018 RMK A01 T10171086  RH  059%=      5-min Rain = 0
KCL1 100813Z 24001KT M02/M09 A3018 RMK A01 T10171086  RH  059%=      5-min Rain = 0
KCL1 100814Z 24001KT M02/M08 A3018 RMK A01 T10161084  RH  060%=      5-min Rain = 0
KCL1 100815Z 24001KT M02/M09 A3018 RMK A01 T10161085  RH  059%=      5-min Rain = 0
KCL1 100816Z 24001KT M02/M08 A3018 RMK A01 T10161084  RH  060%=      5-min Rain = 0
KCL1 100817Z 24002KT M02/M08 A3018 RMK A01 T10161082  RH  061%=      5-min Rain = 0
KCL1 100818Z 25002KT M02/M08 A3018 RMK A01 T10161082  RH  061%=      5-min Rain = 0
KCL1 100819Z 26002KT M02/M08 A3018 RMK A01 T10161081  RH  061%=      5-min Rain = 0
KCL1 100820Z 26002KT M02/M08 A3018 RMK A01 T10151082  RH  061%=      5-min Rain = 0
KCL1 100821Z 27002KT M02/M08 A3018 RMK A01 T10151083  RH  060%=      5-min Rain = 0
KCL1 100822Z 27002KT M02/M08 A3018 RMK A01 T10151084  RH  059%=      5-min Rain = 0
KCL1 100823Z 27002KT M02/M08 A3018 RMK A01 T10151083  RH  060%=      5-min Rain = 0
KCL1 100824Z 28001KT M02/M08 A3018 RMK A01 T10151081  RH  061%=      5-min Rain = 0
KCL1 100825Z 30002KT M02/M08 A3018 RMK A01 T10151080  RH  061%=      5-min Rain = 0
KCL1 100826Z 31002KT M02/M08 A3018 RMK A01 T10161080  RH  062%=      5-min Rain = 0
KCL1 100827Z 31002KT M02/M08 A3018 RMK A01 T10161080  RH  062%=      5-min Rain = 0
KCL1 100828Z 31002KT M02/M08 A3018 RMK A01 T10161079  RH  062%=      5-min Rain = 0
KCL1 100829Z 32002KT M02/M08 A3018 RMK A01 T10161079  RH  062%=      5-min Rain = 0
KCL1 100830Z 32002KT M02/M08 A3018 RMK A01 T10161078  RH  063%=      5-min Rain = 0
KCL1 100831Z 32002KT M02/M08 A3017 RMK A01 T10161077  RH  063%=      5-min Rain = 0
KCL1 100832Z 32001KT M02/M08 A3017 RMK A01 T10161078  RH  063%=      5-min Rain = 0
KCL1 100833Z 32001KT M02/M08 A3017 RMK A01 T10171079  RH  063%=      5-min Rain = 0
KCL1 100834Z 32001KT M02/M08 A3017 RMK A01 T10161079  RH  062%=      5-min Rain = 0
KCL1 100835Z 32002KT M02/M08 A3017 RMK A01 T10171082  RH  061%=      5-min Rain = 0
KCL1 100836Z 33002KT M02/M08 A3017 RMK A01 T10161080  RH  061%=      5-min Rain = 0
KCL1 100837Z 33002KT M02/M08 A3017 RMK A01 T10161079  RH  062%=      5-min Rain = 0
KCL1 100838Z 33002KT M02/M08 A3017 RMK A01 T10151078  RH  063%=      5-min Rain = 0
KCL1 100839Z 33002KT M02/M08 A3017 RMK A01 T10151075  RH  064%=      5-min Rain = 0
KCL1 100840Z 32003KT M02/M07 A3017 RMK A01 T10151073  RH  065%=      5-min Rain = 0
KCL1 100841Z 33003KT M02/M07 A3017 RMK A01 T10161072  RH  066%=      5-min Rain = 0
KCL1 100842Z 33003KT M02/M07 A3017 RMK A01 T10161072  RH  066%=      5-min Rain = 0
KCL1 100843Z 33003KT M02/M07 A3017 RMK A01 T10171071  RH  066%=      5-min Rain = 0
KCL1 100844Z 33002KT M02/M07 A3017 RMK A01 T10171072  RH  066%=      5-min Rain = 0
KCL1 100845Z 33003KT M02/M07 A3017 RMK A01 T10171074  RH  065%=      5-min Rain = 0
KCL1 100846Z 33002KT M02/M07 A3017 RMK A01 T10181074  RH  066%=      5-min Rain = 0
KCL1 100847Z 33004KT M02/M07 A3017 RMK A01 T10181073  RH  066%=      5-min Rain = 0
KCL1 100848Z 33004KT M02/M07 A3017 RMK A01 T10191072  RH  067%=      5-min Rain = 0
KCL1 100849Z 33004KT M02/M07 A3017 RMK A01 T10191072  RH  067%=      5-min Rain = 0
KCL1 100850Z 32004KT M02/M07 A3017 RMK A01 T10201072  RH  068%=      5-min Rain = 0
KCL1 100851Z 32004KT M02/M07 A3017 RMK A01 T10201072  RH  068%=      5-min Rain = 0
KCL1 100852Z 32004KT M02/M07 A3017 RMK A01 T10211072  RH  068%=      5-min Rain = 0
KCL1 100853Z 32004KT M02/M07 A3017 RMK A01 T10211072  RH  068%=      5-min Rain = 0
KCL1 100854Z 32003KT M02/M07 A3017 RMK A01 T10211074  RH  067%=      5-min Rain = 0
KCL1 100855Z 32003KT M02/M07 A3017 RMK A01 T10221074  RH  067%=      5-min Rain = 0
KCL1 100856Z 32003KT M02/M08 A3017 RMK A01 T10221075  RH  067%=      5-min Rain = 0
KCL1 100857Z 32003KT M02/M08 A3017 RMK A01 T10211075  RH  067%=      5-min Rain = 0
KCL1 100858Z 32003KT M02/M08 A3017 RMK A01 T10211076  RH  066%=      5-min Rain = 0
KCL1 100859Z 33003KT M02/M08 A3017 RMK A01 T10221077  RH  066%=      5-min Rain = 0
KCL1 100900Z 33003KT M02/M08 A3017 RMK A01 T10211077  RH  066%=      5-min Rain = 0
KCL1 100901Z 32003KT M02/M08 A3017 RMK A01 T10211076  RH  066%=      5-min Rain = 0
KCL1 100902Z 33003KT M02/M08 A3017 RMK A01 T10211075  RH  067%=      5-min Rain = 0
KCL1 100903Z 33003KT M02/M07 A3017 RMK A01 T10211073  RH  068%=      5-min Rain = 0
KCL1 100904Z 32003KT M02/M07 A3017 RMK A01 T10221071  RH  069%=      5-min Rain = 0
KCL1 100905Z 31003KT M02/M07 A3017 RMK A01 T10221069  RH  070%=      5-min Rain = 0
KCL1 100906Z 31003KT M02/M07 A3017 RMK A01 T10221069  RH  070%=      5-min Rain = 0
KCL1 100907Z 31002KT M02/M07 A3017 RMK A01 T10221069  RH  071%=      5-min Rain = 0
KCL1 100908Z 31002KT M02/M07 A3017 RMK A01 T10231070  RH  070%=      5-min Rain = 0
KCL1 100909Z 29002KT M02/M07 A3017 RMK A01 T10221070  RH  070%=      5-min Rain = 0
KCL1 100910Z 28002KT M02/M07 A3017 RMK A01 T10221070  RH  070%=      5-min Rain = 0
KCL1 100911Z 26002KT M02/M07 A3017 RMK A01 T10221071  RH  069%=      5-min Rain = 0
KCL1 100912Z 28002KT M02/M07 A3017 RMK A01 T10221073  RH  068%=      5-min Rain = 0
KCL1 100913Z 29002KT M02/M07 A3017 RMK A01 T10221074  RH  067%=      5-min Rain = 0
KCL1 100914Z 30002KT M02/M08 A3017 RMK A01 T10211076  RH  066%=      5-min Rain = 0
KCL1 100915Z 31002KT M02/M08 A3017 RMK A01 T10211078  RH  065%=      5-min Rain = 0
KCL1 100916Z 30002KT M02/M08 A3017 RMK A01 T10211079  RH  064%=      5-min Rain = 0
KCL1 100917Z 29001KT M02/M08 A3017 RMK A01 T10211079  RH  064%=      5-min Rain = 0
KCL1 100918Z 29001KT M02/M08 A3017 RMK A01 T10211079  RH  065%=      5-min Rain = 0
KCL1 100919Z 30001KT M02/M08 A3017 RMK A01 T10211079  RH  064%=      5-min Rain = 0
KCL1 100920Z 31002KT M02/M08 A3016 RMK A01 T10211079  RH  064%=      5-min Rain = 0
KCL1 100921Z 31002KT M02/M08 A3016 RMK A01 T10211079  RH  064%=      5-min Rain = 0
KCL1 100922Z 33002KT M02/M08 A3016 RMK A01 T10211078  RH  065%=      5-min Rain = 0
KCL1 100923Z 32002KT M02/M08 A3016 RMK A01 T10211078  RH  065%=      5-min Rain = 0
KCL1 100924Z 32002KT M02/M08 A3016 RMK A01 T10211077  RH  065%=      5-min Rain = 0
KCL1 100925Z 32002KT M02/M08 A3016 RMK A01 T10211076  RH  066%=      5-min Rain = 0
KCL1 100926Z 33002KT M02/M08 A3016 RMK A01 T10211076  RH  066%=      5-min Rain = 0
KCL1 100927Z 33002KT M02/M08 A3016 RMK A01 T10211075  RH  067%=      5-min Rain = 0
KCL1 100928Z 33002KT M02/M07 A3016 RMK A01 T10211074  RH  067%=      5-min Rain = 0
KCL1 100929Z 33003KT M02/M07 A3016 RMK A01 T10211073  RH  068%=      5-min Rain = 0
KCL1 100930Z 33003KT M02/M07 A3016 RMK A01 T10211072  RH  068%=      5-min Rain = 0
KCL1 100931Z 32003KT M02/M07 A3016 RMK A01 T10221072  RH  068%=      5-min Rain = 0
KCL1 100932Z 31003KT M02/M07 A3016 RMK A01 T10221072  RH  069%=      5-min Rain = 0
KCL1 100933Z 31003KT M02/M08 A3016 RMK A01 T10231075  RH  067%=      5-min Rain = 0
KCL1 100934Z 30003KT M02/M08 A3016 RMK A01 T10221077  RH  066%=      5-min Rain = 0
KCL1 100935Z 30003KT M02/M08 A3016 RMK A01 T10231078  RH  066%=      5-min Rain = 0
KCL1 100936Z 32002KT M02/M08 A3016 RMK A01 T10231078  RH  066%=      5-min Rain = 0
KCL1 100937Z 32002KT M02/M08 A3016 RMK A01 T10241077  RH  067%=      5-min Rain = 0
KCL1 100938Z 34001KT M03/M08 A3016 RMK A01 T10251077  RH  068%=      5-min Rain = 0
KCL1 100939Z 33002KT M03/M08 A3016 RMK A01 T10261077  RH  068%=      5-min Rain = 0
KCL1 100940Z 32003KT M03/M08 A3016 RMK A01 T10261079  RH  067%=      5-min Rain = 0
KCL1 100941Z 33003KT M03/M08 A3016 RMK A01 T10251080  RH  066%=      5-min Rain = 0
KCL1 100942Z 34004KT M02/M08 A3016 RMK A01 T10241079  RH  066%=      5-min Rain = 0
KCL1 100943Z 34003KT M02/M08 A3016 RMK A01 T10241078  RH  067%=      5-min Rain = 0
KCL1 100944Z 34004KT M03/M08 A3016 RMK A01 T10251077  RH  068%=      5-min Rain = 0
KCL1 100945Z 34005KT M03/M08 A3016 RMK A01 T10261077  RH  068%=      5-min Rain = 0
KCL1 100946Z 33004KT M03/M08 A3016 RMK A01 T10271077  RH  069%=      5-min Rain = 0
KCL1 100947Z 33004KT M03/M08 A3016 RMK A01 T10281077  RH  069%=      5-min Rain = 0
KCL1 100948Z 34004KT M03/M08 A3016 RMK A01 T10291078  RH  069%=      5-min Rain = 0
KCL1 100949Z 34004KT M03/M08 A3016 RMK A01 T10291078  RH  069%=      5-min Rain = 0
KCL1 100950Z 34004KT M03/M08 A3016 RMK A01 T10291079  RH  068%=      5-min Rain = 0
KCL1 100951Z 34003KT M03/M08 A3016 RMK A01 T10291080  RH  068%=      5-min Rain = 0
KCL1 100952Z 33003KT M03/M08 A3016 RMK A01 T10291080  RH  068%=      5-min Rain = 0
KCL1 100953Z 32004KT M03/M08 A3016 RMK A01 T10281080  RH  068%=      5-min Rain = 0
KCL1 100954Z 32003KT M03/M08 A3016 RMK A01 T10281080  RH  068%=      5-min Rain = 0
KCL1 100955Z 32004KT M03/M08 A3016 RMK A01 T10271079  RH  068%=      5-min Rain = 0
KCL1 100956Z 32004KT M03/M08 A3017 RMK A01 T10271078  RH  068%=      5-min Rain = 0
KCL1 100957Z 32004KT M03/M08 A3017 RMK A01 T10271077  RH  068%=      5-min Rain = 0
KCL1 100958Z 32004KT M03/M08 A3017 RMK A01 T10271077  RH  068%=      5-min Rain = 0
KCL1 100959Z 32004KT M03/M08 A3017 RMK A01 T10271078  RH  068%=      5-min Rain = 0
KCL1 101000Z 32004KT M03/M08 A3017 RMK A01 T10261079  RH  067%=      5-min Rain = 0
KCL1 101001Z 32003KT M03/M08 A3017 RMK A01 T10261080  RH  066%=      5-min Rain = 0
KCL1 101002Z 33003KT M03/M08 A3017 RMK A01 T10251081  RH  065%=      5-min Rain = 0
KCL1 101003Z 33004KT M02/M08 A3017 RMK A01 T10241082  RH  064%=      5-min Rain = 0
KCL1 101004Z 33004KT M02/M08 A3017 RMK A01 T10231083  RH  063%=      5-min Rain = 0
KCL1 101005Z 32003KT M02/M08 A3017 RMK A01 T10221084  RH  063%=      5-min Rain = 0
KCL1 101006Z 33003KT M02/M08 A3017 RMK A01 T10221084  RH  062%=      5-min Rain = 0
KCL1 101007Z 33003KT M02/M08 A3017 RMK A01 T10221083  RH  063%=      5-min Rain = 0
KCL1 101008Z 33003KT M02/M08 A3017 RMK A01 T10221082  RH  064%=      5-min Rain = 0
KCL1 101009Z 34003KT M02/M08 A3017 RMK A01 T10231082  RH  064%=      5-min Rain = 0
KCL1 101010Z 34003KT M02/M08 A3018 RMK A01 T10231081  RH  064%=      5-min Rain = 0
KCL1 101011Z 34003KT M02/M08 A3018 RMK A01 T10231080  RH  065%=      5-min Rain = 0
KCL1 101012Z 34003KT M02/M08 A3018 RMK A01 T10241080  RH  065%=      5-min Rain = 0
KCL1 101013Z 35003KT M02/M08 A3018 RMK A01 T10231079  RH  065%=      5-min Rain = 0
KCL1 101014Z 36003KT M02/M08 A3018 RMK A01 T10231078  RH  066%=      5-min Rain = 0
KCL1 101015Z 00004KT M02/M08 A3017 RMK A01 T10231077  RH  066%=      5-min Rain = 0
KCL1 101016Z 00004KT M02/M08 A3017 RMK A01 T10221076  RH  067%=      5-min Rain = 0
KCL1 101017Z 00004KT M02/M08 A3017 RMK A01 T10221075  RH  067%=      5-min Rain = 0
KCL1 101018Z 35004KT M02/M08 A3018 RMK A01 T10211075  RH  067%=      5-min Rain = 0
KCL1 101019Z 35004KT M02/M07 A3018 RMK A01 T10211074  RH  067%=      5-min Rain = 0
KCL1 101020Z 35004KT M02/M07 A3018 RMK A01 T10211071  RH  069%=      5-min Rain = 0
KCL1 101021Z 34003KT M02/M07 A3018 RMK A01 T10211068  RH  070%=      5-min Rain = 0
KCL1 101022Z 34003KT M02/M07 A3018 RMK A01 T10211066  RH  071%=      5-min Rain = 0
KCL1 101023Z 35003KT M02/M07 A3018 RMK A01 T10221066  RH  072%=      5-min Rain = 0
KCL1 101024Z 35002KT M02/M07 A3018 RMK A01 T10221066  RH  072%=      5-min Rain = 0
KCL1 101025Z 00002KT M02/M07 A3018 RMK A01 T10221066  RH  071%=      5-min Rain = 0
KCL1 101026Z 00002KT M02/M07 A3018 RMK A01 T10221066  RH  072%=      5-min Rain = 0
KCL1 101027Z 35002KT M02/M07 A3019 RMK A01 T10211066  RH  072%=      5-min Rain = 0
KCL1 101028Z 33002KT M02/M07 A3019 RMK A01 T10211066  RH  071%=      5-min Rain = 0
KCL1 101029Z 31003KT M02/M07 A3019 RMK A01 T10211066  RH  071%=      5-min Rain = 0
KCL1 101030Z 30003KT M02/M07 A3019 RMK A01 T10211066  RH  071%=      5-min Rain = 0
KCL1 101031Z 30004KT M02/M07 A3019 RMK A01 T10211068  RH  070%=      5-min Rain = 0
KCL1 101032Z 28004KT M02/M07 A3019 RMK A01 T10211070  RH  069%=      5-min Rain = 0
KCL1 101033Z 27003KT M02/M07 A3019 RMK A01 T10201070  RH  068%=      5-min Rain = 0
KCL1 101034Z 27003KT M02/M07 A3019 RMK A01 T10191071  RH  068%=      5-min Rain = 0
KCL1 101035Z 27002KT M02/M07 A3019 RMK A01 T10181071  RH  067%=      5-min Rain = 0
KCL1 101036Z 28001KT M02/M07 A3019 RMK A01 T10181073  RH  066%=      5-min Rain = 0
KCL1 101037Z 28001KT M02/M08 A3019 RMK A01 T10171075  RH  065%=      5-min Rain = 0
KCL1 101038Z 20000KT M02/M08 A3018 RMK A01 T10171076  RH  064%=      5-min Rain = 0
KCL1 101039Z 22001KT M02/M08 A3018 RMK A01 T10161078  RH  063%=      5-min Rain = 0
KCL1 101040Z 23001KT M02/M08 A3018 RMK A01 T10161079  RH  062%=      5-min Rain = 0
KCL1 101041Z 22002KT M02/M08 A3018 RMK A01 T10151080  RH  061%=      5-min Rain = 0
KCL1 101042Z 22001KT M02/M08 A3018 RMK A01 T10151079  RH  062%=      5-min Rain = 0
KCL1 101043Z 19001KT M02/M08 A3018 RMK A01 T10151079  RH  061%=      5-min Rain = 0
KCL1 101044Z 18001KT M02/M08 A3018 RMK A01 T10151077  RH  062%=      5-min Rain = 0
KCL1 101045Z 20001KT M02/M08 A3018 RMK A01 T10151077  RH  063%=      5-min Rain = 0
KCL1 101046Z 22002KT M02/M08 A3018 RMK A01 T10151075  RH  064%=      5-min Rain = 0
KCL1 101047Z 23002KT M02/M08 A3018 RMK A01 T10161078  RH  063%=      5-min Rain = 0
KCL1 101048Z 24003KT M02/M08 A3018 RMK A01 T10161079  RH  062%=      5-min Rain = 0
KCL1 101049Z 25003KT M02/M08 A3018 RMK A01 T10161078  RH  063%=      5-min Rain = 0
KCL1 101050Z 26004KT M02/M08 A3018 RMK A01 T10161078  RH  062%=      5-min Rain = 0
KCL1 101051Z 27004KT M02/M08 A3018 RMK A01 T10161079  RH  062%=      5-min Rain = 0
KCL1 101052Z 27004KT M02/M08 A3018 RMK A01 T10171077  RH  063%=      5-min Rain = 0
KCL1 101053Z 27003KT M02/M08 A3018 RMK A01 T10171076  RH  064%=      5-min Rain = 0
KCL1 101054Z 27003KT M02/M08 A3018 RMK A01 T10171076  RH  064%=      5-min Rain = 0
KCL1 101055Z 26002KT M02/M08 A3018 RMK A01 T10181076  RH  064%=      5-min Rain = 0
KCL1 101056Z 26001KT M02/M08 A3018 RMK A01 T10181076  RH  064%=      5-min Rain = 0
KCL1 101057Z 22001KT M02/M08 A3018 RMK A01 T10181076  RH  065%=      5-min Rain = 0
KCL1 101058Z 21002KT M02/M08 A3018 RMK A01 T10191077  RH  065%=      5-min Rain = 0
KCL1 101059Z 22002KT M02/M08 A3018 RMK A01 T10191077  RH  064%=      5-min Rain = 0
KCL1 101100Z 22003KT M02/M08 A3018 RMK A01 T10191078  RH  064%=      5-min Rain = 0
KCL1 101101Z 23004KT M02/M08 A3018 RMK A01 T10191077  RH  065%=      5-min Rain = 0
KCL1 101102Z 24004KT M02/M08 A3018 RMK A01 T10201077  RH  065%=      5-min Rain = 0
KCL1 101103Z 27004KT M02/M08 A3018 RMK A01 T10201077  RH  065%=      5-min Rain = 0
KCL1 101104Z 29004KT M02/M08 A3018 RMK A01 T10211077  RH  066%=      5-min Rain = 0
KCL1 101105Z 29003KT M02/M08 A3018 RMK A01 T10221077  RH  066%=      5-min Rain = 0
KCL1 101106Z 29003KT M02/M08 A3018 RMK A01 T10221077  RH  066%=      5-min Rain = 0
KCL1 101107Z 29002KT M02/M08 A3018 RMK A01 T10221078  RH  065%=      5-min Rain = 0
KCL1 101108Z 30002KT M02/M08 A3018 RMK A01 T10211078  RH  065%=      5-min Rain = 0
KCL1 101109Z 30002KT M02/M08 A3018 RMK A01 T10211078  RH  065%=      5-min Rain = 0
KCL1 101110Z 30002KT M02/M08 A3018 RMK A01 T10201078  RH  064%=      5-min Rain = 0
KCL1 101111Z 29002KT M02/M08 A3018 RMK A01 T10201079  RH  064%=      5-min Rain = 0
KCL1 101112Z 28003KT M02/M08 A3018 RMK A01 T10201078  RH  065%=      5-min Rain = 0
KCL1 101113Z 28003KT M02/M08 A3018 RMK A01 T10201078  RH  065%=      5-min Rain = 0
KCL1 101114Z 27003KT M02/M08 A3018 RMK A01 T10201078  RH  065%=      5-min Rain = 0
KCL1 101115Z 28003KT M02/M08 A3018 RMK A01 T10211080  RH  064%=      5-min Rain = 0
KCL1 101116Z 30004KT M02/M08 A3018 RMK A01 T10211081  RH  063%=      5-min Rain = 0
KCL1 101117Z 31003KT M02/M08 A3018 RMK A01 T10201082  RH  063%=      5-min Rain = 0
KCL1 101118Z 32003KT M02/M08 A3018 RMK A01 T10201082  RH  063%=      5-min Rain = 0
KCL1 101119Z 32003KT M02/M08 A3018 RMK A01 T10201080  RH  064%=      5-min Rain = 0
KCL1 101120Z 32002KT M02/M08 A3018 RMK A01 T10201079  RH  064%=      5-min Rain = 0
KCL1 101121Z 31003KT M02/M08 A3018 RMK A01 T10201079  RH  064%=      5-min Rain = 0
KCL1 101122Z 30003KT M02/M08 A3018 RMK A01 T10211079  RH  064%=      5-min Rain = 0
KCL1 101123Z 29004KT M02/M08 A3018 RMK A01 T10211079  RH  064%=      5-min Rain = 0
KCL1 101124Z 28003KT M02/M08 A3018 RMK A01 T10211080  RH  064%=      5-min Rain = 0
KCL1 101125Z 28003KT M02/M08 A3018 RMK A01 T10211080  RH  064%=      5-min Rain = 0
KCL1 101126Z 29003KT M02/M08 A3018 RMK A01 T10211082  RH  063%=      5-min Rain = 0
KCL1 101127Z 30002KT M02/M08 A3018 RMK A01 T10211084  RH  062%=      5-min Rain = 0
KCL1 101128Z 31002KT M02/M08 A3018 RMK A01 T10211083  RH  063%=      5-min Rain = 0
KCL1 101129Z 31002KT M02/M08 A3018 RMK A01 T10221083  RH  063%=      5-min Rain = 0
KCL1 101130Z 31002KT M02/M08 A3018 RMK A01 T10231083  RH  063%=      5-min Rain = 0
KCL1 101131Z 30002KT M02/M08 A3018 RMK A01 T10221083  RH  063%=      5-min Rain = 0
KCL1 101132Z 30002KT M02/M08 A3018 RMK A01 T10231084  RH  063%=      5-min Rain = 0
KCL1 101133Z 28002KT M02/M09 A3018 RMK A01 T10231085  RH  062%=      5-min Rain = 0
KCL1 101134Z 28002KT M02/M09 A3018 RMK A01 T10231085  RH  062%=      5-min Rain = 0
KCL1 101135Z 28002KT M02/M09 A3018 RMK A01 T10221086  RH  061%=      5-min Rain = 0
KCL1 101136Z 29003KT M02/M09 A3018 RMK A01 T10221087  RH  061%=      5-min Rain = 0
KCL1 101137Z 29003KT M02/M09 A3018 RMK A01 T10211088  RH  060%=      5-min Rain = 0
KCL1 101138Z 30003KT M02/M09 A3018 RMK A01 T10211089  RH  060%=      5-min Rain = 0
KCL1 101139Z 30003KT M02/M09 A3018 RMK A01 T10211089  RH  060%=      5-min Rain = 0
KCL1 101140Z 29003KT M02/M09 A3018 RMK A01 T10211088  RH  060%=      5-min Rain = 0
KCL1 101141Z 29003KT M02/M09 A3018 RMK A01 T10211088  RH  060%=      5-min Rain = 0
KCL1 101142Z 29004KT M02/M09 A3018 RMK A01 T10221087  RH  061%=      5-min Rain = 0
KCL1 101143Z 29004KT M02/M09 A3018 RMK A01 T10221087  RH  061%=      5-min Rain = 0
KCL1 101144Z 30004KT M02/M09 A3019 RMK A01 T10221087  RH  061%=      5-min Rain = 0
KCL1 101145Z 29003KT M02/M09 A3019 RMK A01 T10211087  RH  061%=      5-min Rain = 0
KCL1 101146Z 30003KT M02/M09 A3018 RMK A01 T10211086  RH  061%=      5-min Rain = 0
KCL1 101147Z 30003KT M02/M09 A3018 RMK A01 T10211085  RH  061%=      5-min Rain = 0
KCL1 101148Z 30004KT M02/M09 A3018 RMK A01 T10221085  RH  062%=      5-min Rain = 0
KCL1 101149Z 29004KT M02/M09 A3018 RMK A01 T10231085  RH  062%=      5-min Rain = 0
KCL1 101150Z 29004KT M02/M08 A3018 RMK A01 T10231084  RH  063%=      5-min Rain = 0
KCL1 101151Z 30004KT M02/M08 A3018 RMK A01 T10241084  RH  063%=      5-min Rain = 0
KCL1 101152Z 30003KT M03/M08 A3019 RMK A01 T10251084  RH  064%=      5-min Rain = 0
KCL1 101153Z 31003KT M03/M08 A3019 RMK A01 T10251083  RH  064%=      5-min Rain = 0
KCL1 101154Z 30002KT M03/M08 A3019 RMK A01 T10251082  RH  065%=      5-min Rain = 0
KCL1 101155Z 30002KT M03/M08 A3019 RMK A01 T10261082  RH  065%=      5-min Rain = 0
KCL1 101156Z 30003KT M03/M08 A3019 RMK A01 T10261081  RH  065%=      5-min Rain = 0
KCL1 101157Z 30003KT M03/M08 A3019 RMK A01 T10261081  RH  066%=      5-min Rain = 0
KCL1 101158Z 29003KT M03/M08 A3019 RMK A01 T10261081  RH  065%=      5-min Rain = 0
KCL1 101159Z 30003KT M03/M08 A3019 RMK A01 T10261082  RH  066%=      5-min Rain = 0
KCL1 101200Z 29003KT M03/M08 A3019 RMK A01 T10261082  RH  066%=      5-min Rain = 0
KCL1 101201Z 28004KT M03/M08 A3019 RMK A01 T10271082  RH  066%=      5-min Rain = 0
KCL1 101202Z 29004KT M03/M08 A3019 RMK A01 T10271082  RH  066%=      5-min Rain = 0
KCL1 101203Z 29004KT M03/M08 A3019 RMK A01 T10261081  RH  066%=      5-min Rain = 0
KCL1 101204Z 29004KT M03/M08 A3019 RMK A01 T10261080  RH  066%=      5-min Rain = 0
KCL1 101205Z 30004KT M03/M08 A3019 RMK A01 T10261079  RH  067%=      5-min Rain = 0
KCL1 101206Z 31005KT M03/M08 A3019 RMK A01 T10261077  RH  068%=      5-min Rain = 0
KCL1 101207Z 31006KT M03/M08 A3019 RMK A01 T10271076  RH  069%=      5-min Rain = 0
KCL1 101208Z 30006KT M03/M08 A3019 RMK A01 T10271076  RH  069%=      5-min Rain = 0
KCL1 101209Z 30006KT M03/M07 A3019 RMK A01 T10271074  RH  070%=      5-min Rain = 0
KCL1 101210Z 30006KT M03/M07 A3019 RMK A01 T10281074  RH  071%=      5-min Rain = 0
KCL1 101211Z 30006KT M03/M07 A3019 RMK A01 T10281074  RH  071%=      5-min Rain = 0
KCL1 101212Z 30005KT M03/M07 A3019 RMK A01 T10281074  RH  070%=      5-min Rain = 0
KCL1 101213Z 30005KT M03/M08 A3019 RMK A01 T10281075  RH  070%=      5-min Rain = 0
KCL1 101214Z 30004KT M03/M08 A3019 RMK A01 T10281076  RH  069%=      5-min Rain = 0
KCL1 101215Z 29004KT M03/M08 A3019 RMK A01 T10271077  RH  068%=      5-min Rain = 0
KCL1 101216Z 29004KT M03/M08 A3019 RMK A01 T10271078  RH  068%=      5-min Rain = 0
KCL1 101217Z 29004KT M03/M08 A3019 RMK A01 T10271080  RH  067%=      5-min Rain = 0
KCL1 101218Z 30004KT M03/M08 A3019 RMK A01 T10271081  RH  066%=      5-min Rain = 0
KCL1 101219Z 30004KT M03/M08 A302 RMK A01 T10271082  RH  066%=      5-min Rain = 0
KCL1 101220Z 30003KT M03/M08 A302 RMK A01 T10271081  RH  066%=      5-min Rain = 0
KCL1 101221Z 30004KT M03/M08 A302 RMK A01 T10271080  RH  067%=      5-min Rain = 0
KCL1 101222Z 30004KT M03/M08 A302 RMK A01 T10281079  RH  067%=      5-min Rain = 0
KCL1 101223Z 29004KT M03/M08 A302 RMK A01 T10281079  RH  068%=      5-min Rain = 0
KCL1 101224Z 29004KT M03/M08 A302 RMK A01 T10291079  RH  068%=      5-min Rain = 0
KCL1 101225Z 28004KT M03/M08 A302 RMK A01 T10291078  RH  069%=      5-min Rain = 0
KCL1 101226Z 28004KT M03/M08 A302 RMK A01 T10291077  RH  069%=      5-min Rain = 0
KCL1 101227Z 28004KT M03/M08 A302 RMK A01 T10291077  RH  069%=      5-min Rain = 0
KCL1 101228Z 28004KT M03/M08 A302 RMK A01 T10281076  RH  069%=      5-min Rain = 0
KCL1 101229Z 27003KT M03/M08 A302 RMK A01 T10271077  RH  069%=      5-min Rain = 0
KCL1 101230Z 28003KT M03/M08 A302 RMK A01 T10261078  RH  067%=      5-min Rain = 0
KCL1 101231Z 27002KT M03/M08 A302 RMK A01 T10261080  RH  067%=      5-min Rain = 0
KCL1 101232Z 26001KT M03/M08 A3021 RMK A01 T10251081  RH  066%=      5-min Rain = 0
KCL1 101233Z 23001KT M03/M08 A3021 RMK A01 T10251081  RH  065%=      5-min Rain = 0
KCL1 101234Z 26001KT M02/M08 A3021 RMK A01 T10241082  RH  064%=      5-min Rain = 0
KCL1 101235Z 29001KT M02/M08 A3021 RMK A01 T10241082  RH  064%=      5-min Rain = 0
KCL1 101236Z 29001KT M03/M08 A3021 RMK A01 T10251082  RH  065%=      5-min Rain = 0
KCL1 101237Z 29002KT M03/M08 A3021 RMK A01 T10261082  RH  065%=      5-min Rain = 0
KCL1 101238Z 30003KT M03/M08 A3021 RMK A01 T10261081  RH  066%=      5-min Rain = 0
KCL1 101239Z 29003KT M03/M08 A3021 RMK A01 T10271081  RH  066%=      5-min Rain = 0
KCL1 101240Z 29004KT M03/M08 A3021 RMK A01 T10271083  RH  065%=      5-min Rain = 0
KCL1 101241Z 29003KT M03/M08 A3021 RMK A01 T10261083  RH  065%=      5-min Rain = 0
KCL1 101242Z 30002KT M03/M08 A3021 RMK A01 T10251082  RH  065%=      5-min Rain = 0
KCL1 101243Z 29003KT M02/M08 A3021 RMK A01 T10241080  RH  065%=      5-min Rain = 0
KCL1 101244Z 28002KT M02/M08 A3021 RMK A01 T10241080  RH  066%=      5-min Rain = 0
KCL1 101245Z 28003KT M02/M08 A3021 RMK A01 T10241080  RH  066%=      5-min Rain = 0
KCL1 101246Z 27002KT M02/M08 A3022 RMK A01 T10241081  RH  065%=      5-min Rain = 0
KCL1 101247Z 28002KT M02/M08 A3022 RMK A01 T10241081  RH  065%=      5-min Rain = 0
KCL1 101248Z 29002KT M02/M08 A3022 RMK A01 T10241081  RH  065%=      5-min Rain = 0
KCL1 101249Z 29001KT M02/M08 A3022 RMK A01 T10231082  RH  064%=      5-min Rain = 0
KCL1 101250Z 30001KT M02/M08 A3022 RMK A01 T10241082  RH  064%=      5-min Rain = 0
KCL1 101251Z 30001KT M02/M08 A3022 RMK A01 T10241081  RH  065%=      5-min Rain = 0
KCL1 101252Z 31002KT M02/M08 A3022 RMK A01 T10241081  RH  065%=      5-min Rain = 0
KCL1 101253Z 31002KT M02/M08 A3022 RMK A01 T10241080  RH  065%=      5-min Rain = 0
KCL1 101254Z 30002KT M03/M08 A3022 RMK A01 T10251081  RH  065%=      5-min Rain = 0
KCL1 101255Z 27002KT M02/M08 A3022 RMK A01 T10241082  RH  065%=      5-min Rain = 0
KCL1 101256Z 28003KT M02/M08 A3022 RMK A01 T10241082  RH  065%=      5-min Rain = 0
KCL1 101257Z 28003KT M02/M08 A3022 RMK A01 T10241082  RH  064%=      5-min Rain = 0
KCL1 101258Z 28003KT M02/M08 A3022 RMK A01 T10231082  RH  064%=      5-min Rain = 0
KCL1 101259Z 28004KT M02/M08 A3022 RMK A01 T10231081  RH  065%=      5-min Rain = 0
KCL1 101300Z 27003KT M02/M08 A3022 RMK A01 T10231081  RH  064%=      5-min Rain = 0
KCL1 101301Z 28003KT M02/M08 A3022 RMK A01 T10231082  RH  064%=      5-min Rain = 0
KCL1 101302Z 28002KT M02/M08 A3022 RMK A01 T10221083  RH  063%=      5-min Rain = 0
KCL1 101303Z 28002KT M02/M08 A3022 RMK A01 T10211084  RH  062%=      5-min Rain = 0
KCL1 101304Z 29002KT M02/M08 A3022 RMK A01 T10201084  RH  062%=      5-min Rain = 0
KCL1 101305Z 30002KT M02/M09 A3022 RMK A01 T10201086  RH  061%=      5-min Rain = 0
KCL1 101306Z 31003KT M02/M09 A3022 RMK A01 T10201086  RH  061%=      5-min Rain = 0
KCL1 101307Z 30003KT M02/M09 A3022 RMK A01 T10211087  RH  060%=      5-min Rain = 0
KCL1 101308Z 29003KT M02/M09 A3022 RMK A01 T10211087  RH  061%=      5-min Rain = 0
KCL1 101309Z 28002KT M02/M09 A3022 RMK A01 T10211087  RH  061%=      5-min Rain = 0
KCL1 101310Z 28002KT M02/M09 A3022 RMK A01 T10221086  RH  061%=      5-min Rain = 0
KCL1 101311Z 29003KT M02/M09 A3022 RMK A01 T10211087  RH  061%=      5-min Rain = 0
KCL1 101312Z 30003KT M02/M09 A3022 RMK A01 T10211089  RH  060%=      5-min Rain = 0
KCL1 101313Z 31004KT M02/M09 A3022 RMK A01 T10211090  RH  059%=      5-min Rain = 0
KCL1 101314Z 32003KT M02/M09 A3022 RMK A01 T10211091  RH  059%=      5-min Rain = 0
KCL1 101315Z 32003KT M02/M09 A3022 RMK A01 T10201090  RH  059%=      5-min Rain = 0
KCL1 101316Z 32003KT M02/M09 A3022 RMK A01 T10201091  RH  059%=      5-min Rain = 0
KCL1 101317Z 32003KT M02/M09 A3022 RMK A01 T10211091  RH  059%=      5-min Rain = 0
KCL1 101318Z 33002KT M02/M09 A3022 RMK A01 T10211091  RH  059%=      5-min Rain = 0
KCL1 101319Z 32003KT M02/M09 A3022 RMK A01 T10211091  RH  059%=      5-min Rain = 0
KCL1 101320Z 32004KT M02/M09 A3023 RMK A01 T10211092  RH  059%=      5-min Rain = 0
KCL1 101321Z 32004KT M02/M09 A3023 RMK A01 T10211090  RH  059%=      5-min Rain = 0
KCL1 101322Z 31005KT M02/M09 A3023 RMK A01 T10231089  RH  061%=      5-min Rain = 0
KCL1 101323Z 31005KT M03/M09 A3023 RMK A01 T10251089  RH  062%=      5-min Rain = 0
KCL1 101324Z 31005KT M03/M09 A3023 RMK A01 T10261088  RH  062%=      5-min Rain = 0
KCL1 101325Z 32006KT M03/M09 A3023 RMK A01 T10261089  RH  062%=      5-min Rain = 0
KCL1 101326Z 32005KT M03/M09 A3023 RMK A01 T10261089  RH  062%=      5-min Rain = 0
KCL1 101327Z 32005KT M03/M09 A3023 RMK A01 T10271089  RH  062%=      5-min Rain = 0
KCL1 101328Z 32005KT M03/M09 A3023 RMK A01 T10271088  RH  063%=      5-min Rain = 0
KCL1 101329Z 32005KT M03/M09 A3023 RMK A01 T10271088  RH  063%=      5-min Rain = 0
KCL1 101330Z 32004KT M03/M09 A3023 RMK A01 T10281087  RH  064%=      5-min Rain = 0
KCL1 101331Z 32004KT M03/M09 A3023 RMK A01 T10281086  RH  064%=      5-min Rain = 0
KCL1 101332Z 32004KT M03/M08 A3023 RMK A01 T10281084  RH  065%=      5-min Rain = 0
KCL1 101333Z 32004KT M03/M08 A3023 RMK A01 T10291084  RH  066%=      5-min Rain = 0
KCL1 101334Z 31005KT M03/M08 A3023 RMK A01 T10291083  RH  066%=      5-min Rain = 0
KCL1 101335Z 31005KT M03/M08 A3023 RMK A01 T10291084  RH  066%=      5-min Rain = 0
KCL1 101336Z 31005KT M03/M08 A3023 RMK A01 T10291083  RH  066%=      5-min Rain = 0
KCL1 101337Z 31005KT M03/M08 A3023 RMK A01 T10281083  RH  066%=      5-min Rain = 0
KCL1 101338Z 31005KT M03/M08 A3023 RMK A01 T10281083  RH  066%=      5-min Rain = 0
KCL1 101339Z 30004KT M03/M08 A3023 RMK A01 T10271083  RH  065%=      5-min Rain = 0
KCL1 101340Z 30003KT M03/M08 A3023 RMK A01 T10271082  RH  066%=      5-min Rain = 0
KCL1 101341Z 29003KT M03/M08 A3023 RMK A01 T10261082  RH  065%=      5-min Rain = 0
KCL1 101342Z 25002KT M03/M09 A3023 RMK A01 T10261085  RH  064%=      5-min Rain = 0
KCL1 101343Z 25002KT M02/M09 A3023 RMK A01 T10241091  RH  060%=      5-min Rain = 0
KCL1 101344Z 26002KT M02/M09 A3023 RMK A01 T10211092  RH  058%=      5-min Rain = 0
KCL1 101345Z 27002KT M02/M09 A3023 RMK A01 T10191094  RH  057%=      5-min Rain = 0
KCL1 101346Z 29003KT M02/M10 A3023 RMK A01 T10181095  RH  056%=      5-min Rain = 0
KCL1 101347Z 30004KT M02/M10 A3023 RMK A01 T10171096  RH  055%=      5-min Rain = 0
KCL1 101348Z 30003KT M02/M10 A3023 RMK A01 T10161095  RH  055%=      5-min Rain = 0
KCL1 101349Z 30004KT M02/M10 A3023 RMK A01 T10161095  RH  055%=      5-min Rain = 0
KCL1 101350Z 29004KT M02/M09 A3023 RMK A01 T10171094  RH  056%=      5-min Rain = 0
KCL1 101351Z 29004KT M02/M10 A3023 RMK A01 T10181095  RH  056%=      5-min Rain = 0
KCL1 101352Z 29004KT M02/M10 A3023 RMK A01 T10191095  RH  056%=      5-min Rain = 0
KCL1 101353Z 30004KT M02/M10 A3023 RMK A01 T10181096  RH  056%=      5-min Rain = 0
KCL1 101354Z 31003KT M02/M10 A3023 RMK A01 T10181095  RH  056%=      5-min Rain = 0
KCL1 101355Z 31003KT M02/M09 A3023 RMK A01 T10191093  RH  057%=      5-min Rain = 0
KCL1 101356Z 30003KT M02/M09 A3023 RMK A01 T10201092  RH  058%=      5-min Rain = 0
KCL1 101357Z 30003KT M02/M09 A3023 RMK A01 T10211091  RH  059%=      5-min Rain = 0
KCL1 101358Z 29003KT M02/M09 A3023 RMK A01 T10221090  RH  060%=      5-min Rain = 0
KCL1 101359Z 29003KT M02/M09 A3023 RMK A01 T10241090  RH  060%=      5-min Rain = 0
KCL1 101400Z 29003KT M02/M09 A3023 RMK A01 T10241090  RH  061%=      5-min Rain = 0
KCL1 101401Z 29003KT M02/M09 A3023 RMK A01 T10241090  RH  061%=      5-min Rain = 0
KCL1 101402Z 29003KT M02/M09 A3023 RMK A01 T10241091  RH  060%=      5-min Rain = 0
KCL1 101403Z 29003KT M02/M09 A3023 RMK A01 T10241091  RH  060%=      5-min Rain = 0
KCL1 101404Z 29003KT M02/M09 A3023 RMK A01 T10231092  RH  059%=      5-min Rain = 0
KCL1 101405Z 28003KT M02/M09 A3023 RMK A01 T10231092  RH  059%=      5-min Rain = 0
KCL1 101406Z 28003KT M02/M09 A3023 RMK A01 T10231092  RH  059%=      5-min Rain = 0
KCL1 101407Z 28002KT M02/M09 A3023 RMK A01 T10221093  RH  058%=      5-min Rain = 0
KCL1 101408Z 26002KT M02/M09 A3023 RMK A01 T10211094  RH  058%=      5-min Rain = 0
KCL1 101409Z 25002KT M02/M10 A3023 RMK A01 T10211095  RH  057%=      5-min Rain = 0
KCL1 101410Z 25002KT M02/M10 A3023 RMK A01 T10201096  RH  056%=      5-min Rain = 0
KCL1 101411Z 25003KT M02/M10 A3023 RMK A01 T10201096  RH  056%=      5-min Rain = 0
KCL1 101412Z 26002KT M02/M10 A3023 RMK A01 T10201096  RH  056%=      5-min Rain = 0
KCL1 101413Z 26002KT M02/M10 A3023 RMK A01 T10201096  RH  056%=      5-min Rain = 0
KCL1 101414Z 27003KT M02/M10 A3023 RMK A01 T10191096  RH  056%=      5-min Rain = 0
KCL1 101415Z 25002KT M02/M10 A3023 RMK A01 T10181098  RH  054%=      5-min Rain = 0
KCL1 101416Z 27002KT M02/M10 A3023 RMK A01 T10161098  RH  053%=      5-min Rain = 0
KCL1 101417Z 24002KT M01/M10 A3023 RMK A01 T10141098  RH  053%=      5-min Rain = 0
KCL1 101418Z 24002KT M01/M10 A3024 RMK A01 T10131099  RH  052%=      5-min Rain = 0
KCL1 101419Z 25003KT M01/M10 A3024 RMK A01 T10121100  RH  051%=      5-min Rain = 0
KCL1 101420Z 26002KT M01/M10 A3024 RMK A01 T10111101  RH  051%=      5-min Rain = 0
KCL1 101421Z 25002KT M01/M10 A3024 RMK A01 T10101100  RH  050%=      5-min Rain = 0
KCL1 101422Z 26002KT M01/M10 A3024 RMK A01 T10091100  RH  050%=      5-min Rain = 0
KCL1 101423Z 24002KT M01/M10 A3024 RMK A01 T10091101  RH  050%=      5-min Rain = 0
KCL1 101424Z 25002KT M01/M10 A3024 RMK A01 T10081100  RH  050%=      5-min Rain = 0
KCL1 101425Z 26002KT M01/M10 A3024 RMK A01 T10071099  RH  050%=      5-min Rain = 0
KCL1 101426Z 26002KT M01/M10 A3024 RMK A01 T10071099  RH  050%=      5-min Rain = 0
KCL1 101427Z 26002KT M01/M10 A3024 RMK A01 T10071099  RH  050%=      5-min Rain = 0
KCL1 101428Z 26002KT M01/M10 A3024 RMK A01 T10071098  RH  050%=      5-min Rain = 0
KCL1 101429Z 26002KT M01/M10 A3024 RMK A01 T10071098  RH  050%=      5-min Rain = 0
KCL1 101430Z 26002KT M01/M10 A3024 RMK A01 T10061097  RH  050%=      5-min Rain = 0
KCL1 101431Z 26002KT M01/M10 A3024 RMK A01 T10061097  RH  050%=      5-min Rain = 0
KCL1 101432Z 26002KT M01/M10 A3024 RMK A01 T10061096  RH  050%=      5-min Rain = 0
KCL1 101433Z 26001KT M01/M10 A3024 RMK A01 T10051095  RH  051%=      5-min Rain = 0
KCL1 101434Z 26001KT M01/M10 A3024 RMK A01 T10051095  RH  051%=      5-min Rain = 0
KCL1 101435Z 28002KT M01/M10 A3024 RMK A01 T10051095  RH  051%=      5-min Rain = 0
KCL1 101436Z 29002KT M01/M10 A3024 RMK A01 T10051095  RH  051%=      5-min Rain = 0
KCL1 101437Z 30002KT M01/M09 A3024 RMK A01 T10051094  RH  051%=      5-min Rain = 0
KCL1 101438Z 30003KT M01/M09 A3025 RMK A01 T10051094  RH  051%=      5-min Rain = 0
KCL1 101439Z 30003KT M01/M09 A3025 RMK A01 T10051093  RH  051%=      5-min Rain = 0
KCL1 101440Z 30002KT M01/M09 A3025 RMK A01 T10051092  RH  052%=      5-min Rain = 0
KCL1 101441Z 29002KT M01/M09 A3025 RMK A01 T10051091  RH  052%=      5-min Rain = 0
KCL1 101442Z 28001KT M01/M09 A3025 RMK A01 T10051090  RH  052%=      5-min Rain = 0
KCL1 101443Z 28001KT M01/M09 A3025 RMK A01 T10051091  RH  052%=      5-min Rain = 0
KCL1 101444Z 28001KT M01/M09 A3025 RMK A01 T10051090  RH  052%=      5-min Rain = 0
KCL1 101445Z 28001KT M00/M09 A3025 RMK A01 T10041090  RH  052%=      5-min Rain = 0
KCL1 101446Z 28001KT M00/M09 A3025 RMK A01 T10041091  RH  052%=      5-min Rain = 0
KCL1 101447Z 27001KT M00/M09 A3025 RMK A01 T10031091  RH  052%=      5-min Rain = 0
KCL1 101448Z 27002KT M00/M09 A3025 RMK A01 T10031092  RH  051%=      5-min Rain = 0
KCL1 101449Z 25001KT M00/M09 A3025 RMK A01 T10021094  RH  050%=      5-min Rain = 0
KCL1 101450Z 26001KT M00/M10 A3025 RMK A01 T10011097  RH  049%=      5-min Rain = 0
KCL1 101451Z 27001KT M00/M10 A3025 RMK A01 T10011096  RH  049%=      5-min Rain = 0
KCL1 101452Z 28002KT 00/10 A3025 RMK A01 T00000-96  RH  048%=      5-min Rain = 0
KCL1 101453Z 27001KT 00/M10 A3025 RMK A01 T00011098  RH  047%=      5-min Rain = 0
KCL1 101454Z 29001KT 00/M10 A3025 RMK A01 T00011096  RH  048%=      5-min Rain = 0
KCL1 101455Z 29002KT 00/M10 A3025 RMK A01 T00021097  RH  047%=      5-min Rain = 0
KCL1 101456Z 28002KT 00/M10 A3025 RMK A01 T00021098  RH  047%=      5-min Rain = 0
KCL1 101457Z 27001KT 00/M10 A3025 RMK A01 T00021098  RH  047%=      5-min Rain = 0
KCL1 101458Z 26001KT 00/M10 A3025 RMK A01 T00021098  RH  047%=      5-min Rain = 0
KCL1 101459Z 24001KT 00/M10 A3025 RMK A01 T00031097  RH  047%=      5-min Rain = 0
KCL1 101500Z 25002KT 00/M10 A3025 RMK A01 T00031097  RH  047%=      5-min Rain = 0
KCL1 101501Z 25001KT 00/M10 A3025 RMK A01 T00041097  RH  047%=      5-min Rain = 0
KCL1 101502Z 25001KT 01/M10 A3025 RMK A01 T00051097  RH  046%=      5-min Rain = 0
KCL1 101503Z 23001KT 01/M10 A3025 RMK A01 T00051097  RH  046%=      5-min Rain = 0
KCL1 101504Z 21002KT 01/M10 A3025 RMK A01 T00061097  RH  046%=      5-min Rain = 0
KCL1 101505Z 22002KT 01/M10 A3026 RMK A01 T00061097  RH  046%=      5-min Rain = 0
KCL1 101506Z 21001KT 01/M10 A3026 RMK A01 T00071098  RH  045%=      5-min Rain = 0
KCL1 101507Z 21002KT 01/M10 A3026 RMK A01 T00071098  RH  045%=      5-min Rain = 0
KCL1 101508Z 22003KT 01/M10 A3026 RMK A01 T00081099  RH  044%=      5-min Rain = 0
KCL1 101509Z 20002KT 01/M10 A3026 RMK A01 T00091100  RH  044%=      5-min Rain = 0
KCL1 101510Z 20003KT 01/M10 A3026 RMK A01 T00091101  RH  043%=      5-min Rain = 0
KCL1 101511Z 20003KT 01/M10 A3026 RMK A01 T00101102  RH  043%=      5-min Rain = 0
KCL1 101512Z 20002KT 01/M10 A3026 RMK A01 T00101102  RH  043%=      5-min Rain = 0
KCL1 101513Z 21003KT 01/M10 A3026 RMK A01 T00091102  RH  043%=      5-min Rain = 0
KCL1 101514Z 21003KT 01/M10 A3026 RMK A01 T00091101  RH  044%=      5-min Rain = 0
KCL1 101515Z 20003KT 01/M10 A3026 RMK A01 T00091102  RH  043%=      5-min Rain = 0
KCL1 101516Z 21003KT 01/M11 A3026 RMK A01 T00091105  RH  042%=      5-min Rain = 0
KCL1 101517Z 20003KT 01/M11 A3026 RMK A01 T00091105  RH  042%=      5-min Rain = 0
KCL1 101518Z 20003KT 01/M10 A3026 RMK A01 T00101104  RH  042%=      5-min Rain = 0
KCL1 101519Z 21003KT 01/M10 A3026 RMK A01 T00101104  RH  042%=      5-min Rain = 0
KCL1 101520Z 22003KT 01/M11 A3026 RMK A01 T00101105  RH  042%=      5-min Rain = 0
KCL1 101521Z 22003KT 01/M11 A3026 RMK A01 T00101105  RH  042%=      5-min Rain = 0
KCL1 101522Z 21003KT 01/M11 A3026 RMK A01 T00101105  RH  042%=      5-min Rain = 0
KCL1 101523Z 21002KT 01/M11 A3026 RMK A01 T00111105  RH  042%=      5-min Rain = 0
KCL1 101524Z 22002KT 01/M10 A3026 RMK A01 T00111103  RH  042%=      5-min Rain = 0
KCL1 101525Z 20002KT 01/M10 A3026 RMK A01 T00121100  RH  043%=      5-min Rain = 0
KCL1 101526Z 21002KT 01/M10 A3026 RMK A01 T00131100  RH  043%=      5-min Rain = 0
KCL1 101527Z 21003KT 01/M10 A3026 RMK A01 T00141102  RH  042%=      5-min Rain = 0
KCL1 101528Z 20003KT 01/M10 A3026 RMK A01 T00141101  RH  042%=      5-min Rain = 0
KCL1 101529Z 21003KT 01/M10 A3026 RMK A01 T00141099  RH  043%=      5-min Rain = 0
KCL1 101530Z 19004KT 01/M10 A3026 RMK A01 T00141100  RH  042%=      5-min Rain = 0
KCL1 101531Z 19004KT 01/M10 A3026 RMK A01 T00131103  RH  041%=      5-min Rain = 0
KCL1 101532Z 19004KT 01/M11 A3026 RMK A01 T00141106  RH  041%=      5-min Rain = 0
KCL1 101533Z 19004KT 01/M10 A3026 RMK A01 T00141104  RH  041%=      5-min Rain = 0
KCL1 101534Z 20003KT 01/M11 A3026 RMK A01 T00141107  RH  040%=      5-min Rain = 0
KCL1 101535Z 21003KT 01/M11 A3026 RMK A01 T00141107  RH  040%=      5-min Rain = 0
KCL1 101536Z 19003KT 01/M11 A3026 RMK A01 T00141107  RH  040%=      5-min Rain = 0
KCL1 101537Z 18003KT 01/M11 A3027 RMK A01 T00141109  RH  040%=      5-min Rain = 0
KCL1 101538Z 20003KT 02/M11 A3027 RMK A01 T00151106  RH  040%=      5-min Rain = 0
KCL1 101539Z 19003KT 02/M11 A3027 RMK A01 T00161105  RH  040%=      5-min Rain = 0
KCL1 101540Z 19002KT 02/M11 A3027 RMK A01 T00161105  RH  040%=      5-min Rain = 0
KCL1 101541Z 19002KT 02/M10 A3027 RMK A01 T00181102  RH  041%=      5-min Rain = 0
KCL1 101542Z 22002KT 02/M10 A3027 RMK A01 T00191103  RH  040%=      5-min Rain = 0
KCL1 101543Z 25003KT 02/M10 A3027 RMK A01 T00191100  RH  041%=      5-min Rain = 0
KCL1 101544Z 27003KT 02/M10 A3027 RMK A01 T00191100  RH  041%=      5-min Rain = 0
KCL1 101545Z 26002KT 02/M10 A3027 RMK A01 T00191097  RH  042%=      5-min Rain = 0
KCL1 101546Z 27003KT 02/M10 A3027 RMK A01 T00181100  RH  041%=      5-min Rain = 0
KCL1 101547Z 25003KT 02/M10 A3027 RMK A01 T00171102  RH  041%=      5-min Rain = 0
KCL1 101548Z 23003KT 02/M10 A3028 RMK A01 T00171103  RH  041%=      5-min Rain = 0
KCL1 101549Z 26002KT 02/M11 A3028 RMK A01 T00171105  RH  040%=      5-min Rain = 0
KCL1 101550Z 26003KT 02/M10 A3028 RMK A01 T00171104  RH  040%=      5-min Rain = 0
KCL1 101551Z 25003KT 02/M10 A3028 RMK A01 T00171103  RH  040%=      5-min Rain = 0
KCL1 101552Z 26003KT 02/M10 A3028 RMK A01 T00171104  RH  040%=      5-min Rain = 0
KCL1 101553Z 25003KT 02/M10 A3028 RMK A01 T00181104  RH  040%=      5-min Rain = 0
KCL1 101554Z 23003KT 02/M10 A3028 RMK A01 T00191102  RH  040%=      5-min Rain = 0
KCL1 101555Z 23003KT 02/M10 A3028 RMK A01 T00191103  RH  040%=      5-min Rain = 0
KCL1 101556Z 23004KT 02/M10 A3028 RMK A01 T00191104  RH  040%=      5-min Rain = 0
KCL1 101557Z 23003KT 02/M11 A3028 RMK A01 T00191107  RH  039%=      5-min Rain = 0
KCL1 101558Z 23003KT 02/M11 A3028 RMK A01 T00181107  RH  039%=      5-min Rain = 0
KCL1 101559Z 23003KT 02/M10 A3028 RMK A01 T00181104  RH  040%=      5-min Rain = 0
KCL1 101600Z 22003KT 02/M10 A3028 RMK A01 T00201103  RH  040%=      5-min Rain = 0
KCL1 101601Z 21003KT 02/M10 A3028 RMK A01 T00201104  RH  039%=      5-min Rain = 0
KCL1 101602Z 24003KT 02/M11 A3028 RMK A01 T00201107  RH  038%=      5-min Rain = 0
KCL1 101603Z 23003KT 02/M11 A3028 RMK A01 T00201105  RH  039%=      5-min Rain = 0
KCL1 101604Z 22003KT 02/M11 A3028 RMK A01 T00201106  RH  039%=      5-min Rain = 0
KCL1 101605Z 22003KT 02/M11 A3028 RMK A01 T00201106  RH  039%=      5-min Rain = 0
KCL1 101606Z 25003KT 02/M10 A3028 RMK A01 T00211103  RH  039%=      5-min Rain = 0
KCL1 101607Z 23003KT 02/M10 A3028 RMK A01 T00221104  RH  039%=      5-min Rain = 0
KCL1 101608Z 22003KT 02/M10 A3028 RMK A01 T00241103  RH  039%=      5-min Rain = 0
KCL1 101609Z 22003KT 02/M11 A3028 RMK A01 T00241106  RH  038%=      5-min Rain = 0
KCL1 101610Z 22004KT 02/M11 A3028 RMK A01 T00231108  RH  037%=      5-min Rain = 0
KCL1 101611Z 20003KT 02/M11 A3028 RMK A01 T00221108  RH  037%=      5-min Rain = 0
KCL1 101612Z 21003KT 02/M11 A3028 RMK A01 T00221108  RH  037%=      5-min Rain = 0
KCL1 101613Z 22003KT 02/M11 A3028 RMK A01 T00221106  RH  038%=      5-min Rain = 0
KCL1 101614Z 21003KT 02/M11 A3028 RMK A01 T00241105  RH  038%=      5-min Rain = 0
KCL1 101615Z 22003KT 02/M11 A3028 RMK A01 T00241107  RH  037%=      5-min Rain = 0
KCL1 101616Z 21003KT 02/M11 A3028 RMK A01 T00241107  RH  037%=      5-min Rain = 0
KCL1 101617Z 21003KT 02/M11 A3028 RMK A01 T00241108  RH  037%=      5-min Rain = 0
KCL1 101618Z 19003KT 03/M11 A3028 RMK A01 T00251105  RH  038%=      5-min Rain = 0
KCL1 101619Z 19003KT 03/M11 A3028 RMK A01 T00261106  RH  037%=      5-min Rain = 0
KCL1 101620Z 20003KT 03/M11 A3028 RMK A01 T00261107  RH  037%=      5-min Rain = 0
KCL1 101621Z 19004KT 03/M11 A3028 RMK A01 T00261107  RH  037%=      5-min Rain = 0
KCL1 101622Z 22003KT 03/M11 A3029 RMK A01 T00261106  RH  037%=      5-min Rain = 0
KCL1 101623Z 21003KT 03/M11 A3029 RMK A01 T00261107  RH  037%=      5-min Rain = 0
KCL1 101624Z 23001KT 03/M11 A3029 RMK A01 T00251106  RH  037%=      5-min Rain = 0
KCL1 101625Z 21002KT 03/M11 A3029 RMK A01 T00271107  RH  037%=      5-min Rain = 0
KCL1 101626Z 21002KT 03/M11 A3029 RMK A01 T00271108  RH  036%=      5-min Rain = 0
KCL1 101627Z 20002KT 03/M11 A3029 RMK A01 T00281108  RH  036%=      5-min Rain = 0
KCL1 101628Z 19002KT 03/M11 A3029 RMK A01 T00281108  RH  036%=      5-min Rain = 0
KCL1 101629Z 21003KT 03/M11 A3029 RMK A01 T00281108  RH  036%=      5-min Rain = 0
KCL1 101630Z 21002KT 03/M11 A3029 RMK A01 T00281109  RH  036%=      5-min Rain = 0
KCL1 101631Z 17003KT 03/M11 A3029 RMK A01 T00311106  RH  036%=      5-min Rain = 0
KCL1 101632Z 18002KT 03/M11 A3029 RMK A01 T00321108  RH  035%=      5-min Rain = 0
KCL1 101633Z 19003KT 03/M11 A3029 RMK A01 T00331109  RH  035%=      5-min Rain = 0
KCL1 101634Z 18004KT 03/M11 A3029 RMK A01 T00331109  RH  035%=      5-min Rain = 0
KCL1 101635Z 17004KT 03/M11 A3029 RMK A01 T00321108  RH  035%=      5-min Rain = 0
KCL1 101636Z 18004KT 03/M11 A3029 RMK A01 T00331109  RH  035%=      5-min Rain = 0
KCL1 101637Z 20003KT 03/M11 A3029 RMK A01 T00321108  RH  035%=      5-min Rain = 0
KCL1 101638Z 21002KT 03/M11 A3029 RMK A01 T00331111  RH  034%=      5-min Rain = 0
KCL1 101639Z 19003KT 03/M11 A3029 RMK A01 T00331112  RH  034%=      5-min Rain = 0
KCL1 101640Z 17003KT 03/M11 A3029 RMK A01 T00331113  RH  034%=      5-min Rain = 0
KCL1 101641Z 17003KT 03/M11 A3029 RMK A01 T00331114  RH  033%=      5-min Rain = 0
KCL1 101642Z 17002KT 03/M11 A3029 RMK A01 T00341114  RH  033%=      5-min Rain = 0
KCL1 101643Z 17004KT 04/M11 A3029 RMK A01 T00361111  RH  033%=      5-min Rain = 0
KCL1 101644Z 17003KT 04/M11 A3029 RMK A01 T00381111  RH  033%=      5-min Rain = 0
KCL1 101645Z 18003KT 04/M11 A3029 RMK A01 T00391110  RH  033%=      5-min Rain = 0
KCL1 101646Z 16005KT 04/M11 A3029 RMK A01 T00411109  RH  033%=      5-min Rain = 0
KCL1 101647Z 15004KT 04/M12 A3029 RMK A01 T00401116  RH  031%=      5-min Rain = 0
KCL1 101648Z 15006KT 04/M12 A3029 RMK A01 T00391116  RH  031%=      5-min Rain = 0
KCL1 101649Z 17006KT 04/M11 A3028 RMK A01 T00401111  RH  032%=      5-min Rain = 0
KCL1 101650Z 16007KT 04/M11 A3028 RMK A01 T00421110  RH  032%=      5-min Rain = 0
KCL1 101651Z 17005KT 04/M11 A3028 RMK A01 T00421111  RH  032%=      5-min Rain = 0
KCL1 101652Z 15007KT 04/M11 A3028 RMK A01 T00431111  RH  032%=      5-min Rain = 0
KCL1 101653Z 16005KT 04/M11 A3029 RMK A01 T00431112  RH  031%=      5-min Rain = 0
KCL1 101654Z 15007KT 05/M11 A3029 RMK A01 T00451109  RH  032%=      5-min Rain = 0
KCL1 101655Z 16007KT 05/M11 A3029 RMK A01 T00461113  RH  030%=      5-min Rain = 0
KCL1 101656Z 16007KT 05/M12 A3029 RMK A01 T00451117  RH  030%=      5-min Rain = 0
KCL1 101657Z 16006KT 04/M12 A3029 RMK A01 T00431119  RH  030%=      5-min Rain = 0
KCL1 101658Z 17006KT 04/M12 A3029 RMK A01 T00431116  RH  030%=      5-min Rain = 0
KCL1 101659Z 18006KT 04/M11 A3029 RMK A01 T00441114  RH  031%=      5-min Rain = 0
KCL1 101700Z 16006KT 04/M12 A3029 RMK A01 T00431116  RH  030%=      5-min Rain = 0
KCL1 101701Z 16006KT 04/M12 A3029 RMK A01 T00421116  RH  031%=      5-min Rain = 0
KCL1 101702Z 14006KT 04/M11 A3028 RMK A01 T00421114  RH  031%=      5-min Rain = 0
KCL1 101703Z 15003KT 04/M11 A3029 RMK A01 T00421113  RH  031%=      5-min Rain = 0
KCL1 101704Z 16005KT 04/M11 A3028 RMK A01 T00431109  RH  032%=      5-min Rain = 0
KCL1 101705Z 17009KT 05/M11 A3028 RMK A01 T00461112  RH  031%=      5-min Rain = 0
KCL1 101706Z 17008KT 05/M12 A3028 RMK A01 T00451117  RH  030%=      5-min Rain = 0
KCL1 101707Z 17008KT 04/M12 A3028 RMK A01 T00431117  RH  030%=      5-min Rain = 0
KCL1 101708Z 16007KT 04/M12 A3028 RMK A01 T00431119  RH  030%=      5-min Rain = 0
KCL1 101709Z 18008KT 04/M12 A3028 RMK A01 T00421116  RH  030%=      5-min Rain = 0
KCL1 101710Z 16006KT 04/M11 A3028 RMK A01 T00421113  RH  031%=      5-min Rain = 0
KCL1 101711Z 17005KT 04/M11 A3028 RMK A01 T00431111  RH  032%=      5-min Rain = 0
KCL1 101712Z 19007KT 04/M11 A3028 RMK A01 T00431108  RH  032%=      5-min Rain = 0
KCL1 101713Z 16005KT 04/M11 A3028 RMK A01 T00441109  RH  032%=      5-min Rain = 0
KCL1 101714Z 16008KT 05/M11 A3028 RMK A01 T00471108  RH  032%=      5-min Rain = 0
KCL1 101715Z 17008KT 05/M11 A3028 RMK A01 T00481111  RH  031%=      5-min Rain = 0
KCL1 101716Z 17008KT 05/M11 A3028 RMK A01 T00471112  RH  031%=      5-min Rain = 0
KCL1 101717Z 17008KT 05/M11 A3028 RMK A01 T00471111  RH  031%=      5-min Rain = 0
KCL1 101718Z 17007KT 05/M11 A3028 RMK A01 T00451112  RH  031%=      5-min Rain = 0
KCL1 101719Z 16007KT 05/M11 A3028 RMK A01 T00451110  RH  032%=      5-min Rain = 0
KCL1 101720Z 17008KT 05/M11 A3028 RMK A01 T00471108  RH  032%=      5-min Rain = 0
KCL1 101721Z 17006KT 05/M11 A3028 RMK A01 T00461110  RH  031%=      5-min Rain = 0
KCL1 101722Z 17004KT 05/M11 A3028 RMK A01 T00471110  RH  031%=      5-min Rain = 0
KCL1 101723Z 17006KT 05/M11 A3028 RMK A01 T00471108  RH  031%=      5-min Rain = 0
KCL1 101724Z 17007KT 05/M10 A3028 RMK A01 T00501104  RH  032%=      5-min Rain = 0
KCL1 101725Z 16008KT 05/M11 A3028 RMK A01 T00511106  RH  031%=      5-min Rain = 0
KCL1 101726Z 17009KT 05/M11 A3028 RMK A01 T00491109  RH  031%=      5-min Rain = 0
KCL1 101727Z 18009KT 05/M11 A3028 RMK A01 T00471111  RH  031%=      5-min Rain = 0
KCL1 101728Z 18007KT 05/M11 A3028 RMK A01 T00451112  RH  031%=      5-min Rain = 0
KCL1 101729Z 17007KT 05/M11 A3028 RMK A01 T00451108  RH  032%=      5-min Rain = 0
KCL1 101730Z 17009KT 05/M11 A3028 RMK A01 T00471105  RH  032%=      5-min Rain = 0
KCL1 101731Z 16007KT 05/M11 A3028 RMK A01 T00481108  RH  031%=      5-min Rain = 0
KCL1 101732Z 18005KT 05/M11 A3028 RMK A01 T00461109  RH  032%=      5-min Rain = 0
KCL1 101733Z 16008KT 05/M10 A3028 RMK A01 T00471104  RH  032%=      5-min Rain = 0
KCL1 101734Z 16008KT 05/M11 A3028 RMK A01 T00471108  RH  032%=      5-min Rain = 0
KCL1 101735Z 16007KT 05/M10 A3028 RMK A01 T00461104  RH  033%=      5-min Rain = 0
KCL1 101736Z 15010KT 05/M10 A3028 RMK A01 T00481103  RH  033%=      5-min Rain = 0
KCL1 101737Z 15009KT 05/M11 A3028 RMK A01 T00481107  RH  032%=      5-min Rain = 0
KCL1 101738Z 16008KT 05/M11 A3028 RMK A01 T00471107  RH  032%=      5-min Rain = 0
KCL1 101739Z 16008KT 05/M11 A3028 RMK A01 T00461105  RH  032%=      5-min Rain = 0
KCL1 101740Z 16007KT 05/M10 A3028 RMK A01 T00481101  RH  033%=      5-min Rain = 0
KCL1 101741Z 16007KT 05/M10 A3028 RMK A01 T00481103  RH  032%=      5-min Rain = 0
KCL1 101742Z 16007KT 05/M10 A3028 RMK A01 T00491101  RH  033%=      5-min Rain = 0
KCL1 101743Z 19008KT 05/M10 A3028 RMK A01 T00501100  RH  033%=      5-min Rain = 0
KCL1 101744Z 18007KT 05/M10 A3028 RMK A01 T00501104  RH  032%=      5-min Rain = 0
KCL1 101745Z 16008KT 05/M10 A3028 RMK A01 T00481102  RH  033%=      5-min Rain = 0
KCL1 101746Z 16008KT 05/M10 A3028 RMK A01 T00491104  RH  032%=      5-min Rain = 0
KCL1 101747Z 16008KT 05/M10 A3028 RMK A01 T00501101  RH  033%=      5-min Rain = 0
KCL1 101748Z 15009KT 05/M10 A3028 RMK A01 T00521100  RH  033%=      5-min Rain = 0
KCL1 101749Z 16008KT 05/M10 A3028 RMK A01 T00521100  RH  032%=      5-min Rain = 0
KCL1 101750Z 17010KT 05/M10 A3028 RMK A01 T00531100  RH  032%=      5-min Rain = 0
KCL1 101751Z 16010KT 05/M10 A3028 RMK A01 T00521102  RH  032%=      5-min Rain = 0
KCL1 101752Z 16009KT 05/M10 A3028 RMK A01 T00511101  RH  032%=      5-min Rain = 0
KCL1 101753Z 17008KT 05/M10 A3028 RMK A01 T00511100  RH  033%=      5-min Rain = 0
KCL1 101754Z 17009KT 05/M10 A3028 RMK A01 T00511102  RH  032%=      5-min Rain = 0
KCL1 101755Z 18008KT 05/M10 A3028 RMK A01 T00501103  RH  032%=      5-min Rain = 0
KCL1 101756Z 18008KT 05/M10 A3028 RMK A01 T00511102  RH  032%=      5-min Rain = 0
KCL1 101757Z 16008KT 05/M10 A3028 RMK A01 T00511101  RH  032%=      5-min Rain = 0
KCL1 101758Z 15007KT 05/M10 A3028 RMK A01 T00511100  RH  033%=      5-min Rain = 0
KCL1 101759Z 16006KT 05/M10 A3028 RMK A01 T00511101  RH  032%=      5-min Rain = 0
KCL1 101800Z 15008KT 05/M10 A3028 RMK A01 T00521099  RH  033%=      5-min Rain = 0
KCL1 101801Z 15007KT 05/M10 A3028 RMK A01 T00531101  RH  032%=      5-min Rain = 0
KCL1 101802Z 15007KT 05/M10 A3028 RMK A01 T00541099  RH  032%=      5-min Rain = 0
KCL1 101803Z 15008G16KT 06/M10 A3028 RMK A01 T00561098  RH  032%=      5-min Rain = 0
KCL1 101804Z 20007KT 06/M10 A3027 RMK A01 T00561098  RH  032%=      5-min Rain = 0
KCL1 101805Z 19007KT 06/M10 A3028 RMK A01 T00571097  RH  032%=      5-min Rain = 0
KCL1 101806Z 19008KT 06/M10 A3027 RMK A01 T00561100  RH  032%=      5-min Rain = 0
KCL1 101807Z 15008KT 05/M10 A3027 RMK A01 T00541100  RH  032%=      5-min Rain = 0
KCL1 101808Z 16007KT 05/M10 A3027 RMK A01 T00541099  RH  032%=      5-min Rain = 0
KCL1 101809Z 18007KT 05/M10 A3027 RMK A01 T00541096  RH  033%=      5-min Rain = 0
KCL1 101810Z 18006KT 06/M10 A3027 RMK A01 T00561099  RH  032%=      5-min Rain = 0
KCL1 101811Z 17006KT 06/M10 A3027 RMK A01 T00551100  RH  032%=      5-min Rain = 0
KCL1 101812Z 18006KT 05/M10 A3027 RMK A01 T00541101  RH  032%=      5-min Rain = 0
KCL1 101813Z 18006KT 05/M10 A3027 RMK A01 T00521101  RH  032%=      5-min Rain = 0
KCL1 101814Z 18006KT 05/M10 A3027 RMK A01 T00521098  RH  033%=      5-min Rain = 0
KCL1 101815Z 19007KT 05/M10 A3027 RMK A01 T00541097  RH  033%=      5-min Rain = 0
KCL1 101816Z 19006KT 05/M10 A3027 RMK A01 T00541098  RH  032%=      5-min Rain = 0
KCL1 101817Z 20007KT 05/M10 A3027 RMK A01 T00541099  RH  032%=      5-min Rain = 0
KCL1 101818Z 20008KT 05/M10 A3027 RMK A01 T00541099  RH  032%=      5-min Rain = 0
KCL1 101819Z 20007KT 05/M10 A3027 RMK A01 T00531100  RH  032%=      5-min Rain = 0
KCL1 101820Z 21008KT 05/M10 A3027 RMK A01 T00531101  RH  032%=      5-min Rain = 0
KCL1 101821Z 20007KT 05/M10 A3027 RMK A01 T00531100  RH  032%=      5-min Rain = 0
KCL1 101822Z 18004KT 05/M10 A3026 RMK A01 T00541098  RH  033%=      5-min Rain = 0
KCL1 101823Z 20005KT 06/M10 A3026 RMK A01 T00561097  RH  032%=      5-min Rain = 0
KCL1 101824Z 17006KT 06/M09 A3026 RMK A01 T00581093  RH  033%=      5-min Rain = 0
KCL1 101825Z 18007KT 06/M09 A3026 RMK A01 T00601094  RH  032%=      5-min Rain = 0
KCL1 101826Z 19007KT 06/M10 A3026 RMK A01 T00581098  RH  032%=      5-min Rain = 0
KCL1 101827Z 19005KT 06/M10 A3026 RMK A01 T00581095  RH  032%=      5-min Rain = 0
KCL1 101828Z 20006KT 06/M10 A3026 RMK A01 T00591096  RH  032%=      5-min Rain = 0
KCL1 101829Z 21004KT 06/M10 A3026 RMK A01 T00591098  RH  031%=      5-min Rain = 0
KCL1 101830Z 19005KT 06/M10 A3026 RMK A01 T00591098  RH  032%=      5-min Rain = 0
KCL1 101831Z 19006KT 06/M10 A3026 RMK A01 T00591097  RH  032%=      5-min Rain = 0
KCL1 101832Z 19006KT 06/M10 A3026 RMK A01 T00611097  RH  031%=      5-min Rain = 0
KCL1 101833Z 17008KT 06/M10 A3026 RMK A01 T00601095  RH  032%=      5-min Rain = 0
KCL1 101834Z 16008KT 06/M09 A3026 RMK A01 T00621094  RH  032%=      5-min Rain = 0
KCL1 101835Z 18006KT 06/M10 A3026 RMK A01 T00621095  RH  032%=      5-min Rain = 0
KCL1 101836Z 17005KT 06/M09 A3025 RMK A01 T00631093  RH  032%=      5-min Rain = 0
KCL1 101837Z 19006KT 07/M09 A3025 RMK A01 T00651091  RH  032%=      5-min Rain = 0
KCL1 101838Z 19007KT 07/M09 A3025 RMK A01 T00671092  RH  031%=      5-min Rain = 0
KCL1 101839Z 17007KT 07/M10 A3025 RMK A01 T00661095  RH  031%=      5-min Rain = 0
KCL1 101840Z 17007KT 06/M10 A3025 RMK A01 T00641095  RH  031%=      5-min Rain = 0
KCL1 101841Z 15006KT 06/M10 A3025 RMK A01 T00621096  RH  031%=      5-min Rain = 0
KCL1 101842Z 17007KT 06/M10 A3025 RMK A01 T00621095  RH  031%=      5-min Rain = 0
KCL1 101843Z 17009KT 06/M09 A3025 RMK A01 T00631092  RH  032%=      5-min Rain = 0
KCL1 101844Z 16008KT 06/M09 A3025 RMK A01 T00641093  RH  031%=      5-min Rain = 0
KCL1 101845Z 16007KT 07/M09 A3025 RMK A01 T00651091  RH  032%=      5-min Rain = 0
KCL1 101846Z 15010KT 07/M09 A3025 RMK A01 T00681089  RH  032%=      5-min Rain = 0
KCL1 101847Z 15009KT 07/M09 A3025 RMK A01 T00671094  RH  030%=      5-min Rain = 0
KCL1 101848Z 17009KT 07/M09 A3025 RMK A01 T00651093  RH  031%=      5-min Rain = 0
KCL1 101849Z 18007KT 07/M10 A3025 RMK A01 T00651097  RH  030%=      5-min Rain = 0
KCL1 101850Z 17007G12KT 06/M09 A3025 RMK A01 T00641094  RH  031%=      5-min Rain = 0
KCL1 101851Z 17008KT 06/M10 A3025 RMK A01 T00641096  RH  031%=      5-min Rain = 0
KCL1 101852Z 16006KT 06/M10 A3025 RMK A01 T00631098  RH  030%=      5-min Rain = 0
KCL1 101853Z 18007G12KT 06/M09 A3024 RMK A01 T00641093  RH  032%=      5-min Rain = 0
KCL1 101854Z 18009KT 07/M09 A3025 RMK A01 T00681090  RH  031%=      5-min Rain = 0
KCL1 101855Z 18008KT 07/M09 A3025 RMK A01 T00701093  RH  030%=      5-min Rain = 0
KCL1 101856Z 16010KT 07/M09 A3025 RMK A01 T00711093  RH  030%=      5-min Rain = 0
KCL1 101857Z 16008KT 07/M10 A3025 RMK A01 T00701096  RH  030%=      5-min Rain = 0
KCL1 101858Z 16008KT 07/M10 A3025 RMK A01 T00671096  RH  030%=      5-min Rain = 0
KCL1 101859Z 15009KT 07/M09 A3025 RMK A01 T00681094  RH  030%=      5-min Rain = 0
KCL1 101900Z 16009KT 07/M10 A3025 RMK A01 T00691096  RH  030%=      5-min Rain = 0
KCL1 101901Z 15008KT 07/M10 A3025 RMK A01 T00681098  RH  029%=      5-min Rain = 0
KCL1 101902Z 16008KT 07/M09 A3025 RMK A01 T00691094  RH  030%=      5-min Rain = 0
KCL1 101903Z 17008KT 07/M10 A3025 RMK A01 T00701095  RH  030%=      5-min Rain = 0
KCL1 101904Z 17007KT 07/M10 A3025 RMK A01 T00711095  RH  030%=      5-min Rain = 0
KCL1 101905Z 18007KT 07/M10 A3024 RMK A01 T00731096  RH  029%=      5-min Rain = 0
KCL1 101906Z 20010KT 07/M10 A3024 RMK A01 T00721097  RH  029%=      5-min Rain = 0
KCL1 101907Z 19010KT 07/M10 A3024 RMK A01 T00711099  RH  029%=      5-min Rain = 0
KCL1 101908Z 19010KT 07/M10 A3025 RMK A01 T00721097  RH  029%=      5-min Rain = 0
KCL1 101909Z 18009KT 07/M10 A3024 RMK A01 T00711099  RH  029%=      5-min Rain = 0
KCL1 101910Z 19009KT 07/M10 A3024 RMK A01 T00711098  RH  029%=      5-min Rain = 0
KCL1 101911Z 19008KT 07/M10 A3024 RMK A01 T00711098  RH  029%=      5-min Rain = 0
KCL1 101912Z 19008KT 07/M10 A3024 RMK A01 T00711098  RH  029%=      5-min Rain = 0
KCL1 101913Z 20007KT 07/M10 A3024 RMK A01 T00721098  RH  029%=      5-min Rain = 0
KCL1 101914Z 20009KT 07/M10 A3024 RMK A01 T00731098  RH  028%=      5-min Rain = 0
KCL1 101915Z 19008KT 07/M10 A3024 RMK A01 T00731099  RH  028%=      5-min Rain = 0
KCL1 101916Z 20006KT 07/M10 A3024 RMK A01 T00731098  RH  029%=      5-min Rain = 0
KCL1 101917Z 21010KT 07/M10 A3024 RMK A01 T00731099  RH  028%=      5-min Rain = 0
KCL1 101918Z 20011KT 07/M10 A3024 RMK A01 T00721100  RH  028%=      5-min Rain = 0
KCL1 101919Z 19008KT 07/M10 A3024 RMK A01 T00701099  RH  029%=      5-min Rain = 0
KCL1 101920Z 19008KT 07/M10 A3024 RMK A01 T00711097  RH  029%=      5-min Rain = 0
KCL1 101921Z 19007KT 07/M10 A3024 RMK A01 T00721097  RH  029%=      5-min Rain = 0
KCL1 101922Z 19005KT 07/M10 A3024 RMK A01 T00721100  RH  028%=      5-min Rain = 0
KCL1 101923Z 20005KT 07/M10 A3024 RMK A01 T00701102  RH  028%=      5-min Rain = 0
KCL1 101924Z 19007KT 07/M10 A3024 RMK A01 T00711097  RH  029%=      5-min Rain = 0
KCL1 101925Z 20009KT 07/M10 A3024 RMK A01 T00741095  RH  029%=      5-min Rain = 0
KCL1 101926Z 19008KT 08/M10 A3024 RMK A01 T00751095  RH  029%=      5-min Rain = 0
KCL1 101927Z 20006KT 08/M10 A3024 RMK A01 T00751099  RH  028%=      5-min Rain = 0
KCL1 101928Z 20007KT 07/M10 A3024 RMK A01 T00731098  RH  028%=      5-min Rain = 0
KCL1 101929Z 18003KT 08/M10 A3024 RMK A01 T00761095  RH  029%=      5-min Rain = 0
KCL1 101930Z 19004G10KT 08/M10 A3024 RMK A01 T00761097  RH  028%=      5-min Rain = 0
KCL1 101931Z 21007KT 08/M10 A3024 RMK A01 T00761097  RH  028%=      5-min Rain = 0
KCL1 101932Z 20007KT 08/M10 A3024 RMK A01 T00751098  RH  028%=      5-min Rain = 0
KCL1 101933Z 22008KT 08/M10 A3024 RMK A01 T00751097  RH  028%=      5-min Rain = 0
KCL1 101934Z 21009KT 08/M10 A3024 RMK A01 T00751097  RH  028%=      5-min Rain = 0
KCL1 101935Z 20009KT 08/M10 A3024 RMK A01 T00751098  RH  028%=      5-min Rain = 0
KCL1 101936Z 20007KT 08/M10 A3024 RMK A01 T00751098  RH  028%=      5-min Rain = 0
KCL1 101937Z 18007KT 08/M10 A3024 RMK A01 T00751095  RH  029%=      5-min Rain = 0
KCL1 101938Z 18008KT 08/M09 A3024 RMK A01 T00781092  RH  029%=      5-min Rain = 0
KCL1 101939Z 17009KT 08/M10 A3024 RMK A01 T00791095  RH  028%=      5-min Rain = 0
KCL1 101940Z 18009KT 08/M10 A3024 RMK A01 T00781096  RH  028%=      5-min Rain = 0
KCL1 101941Z 20006KT 08/M09 A3024 RMK A01 T00791094  RH  028%=      5-min Rain = 0
KCL1 101942Z 23005KT 08/M10 A3024 RMK A01 T00791097  RH  028%=      5-min Rain = 0
KCL1 101943Z 21007KT 08/M10 A3024 RMK A01 T00791098  RH  027%=      5-min Rain = 0
KCL1 101944Z 18009KT 08/M10 A3024 RMK A01 T00781098  RH  028%=      5-min Rain = 0
KCL1 101945Z 19008KT 08/M09 A3024 RMK A01 T00791094  RH  028%=      5-min Rain = 0
KCL1 101946Z 19006KT 08/M09 A3024 RMK A01 T00811092  RH  028%=      5-min Rain = 0
KCL1 101947Z 18010G15KT 09/M09 A3024 RMK A01 T00851090  RH  028%=      5-min Rain = 0
KCL1 101948Z 18013KT 08/M10 A3024 RMK A01 T00841095  RH  027%=      5-min Rain = 0
KCL1 101949Z 18010KT 08/M10 A3024 RMK A01 T00811098  RH  027%=      5-min Rain = 0
KCL1 101950Z 18008KT 08/M10 A3024 RMK A01 T00791098  RH  027%=      5-min Rain = 0
KCL1 101951Z 18006KT 08/M10 A3024 RMK A01 T00791098  RH  027%=      5-min Rain = 0
KCL1 101952Z 18006KT 08/M10 A3024 RMK A01 T00781099  RH  027%=      5-min Rain = 0
KCL1 101953Z 19005KT 08/M10 A3024 RMK A01 T00771100  RH  027%=      5-min Rain = 0
KCL1 101954Z 17008KT 08/M10 A3023 RMK A01 T00771099  RH  027%=      5-min Rain = 0
KCL1 101955Z 17007KT 08/M10 A3023 RMK A01 T00771097  RH  028%=      5-min Rain = 0
KCL1 101956Z 18007KT 08/M09 A3023 RMK A01 T00811092  RH  028%=      5-min Rain = 0
KCL1 101957Z 15006KT 08/M09 A3023 RMK A01 T00831094  RH  028%=      5-min Rain = 0
KCL1 101958Z 16008KT 09/M09 A3023 RMK A01 T00851092  RH  028%=      5-min Rain = 0
KCL1 101959Z 18007KT 09/M09 A3023 RMK A01 T00861092  RH  027%=      5-min Rain = 0
KCL1 102000Z 19008KT 09/M09 A3023 RMK A01 T00881091  RH  027%=      5-min Rain = 0
KCL1 102001Z 20009KT 09/M09 A3023 RMK A01 T00881094  RH  027%=      5-min Rain = 0
KCL1 102002Z 18008KT 09/M10 A3023 RMK A01 T00861096  RH  026%=      5-min Rain = 0
KCL1 102003Z 16009KT 08/M10 A3023 RMK A01 T00841097  RH  027%=      5-min Rain = 0
KCL1 102004Z 19008KT 08/M10 A3023 RMK A01 T00831096  RH  027%=      5-min Rain = 0
KCL1 102005Z 20011KT 08/M10 A3023 RMK A01 T00841095  RH  027%=      5-min Rain = 0
KCL1 102006Z 19011KT 08/M10 A3023 RMK A01 T00841096  RH  027%=      5-min Rain = 0
KCL1 102007Z 18009KT 08/M10 A3023 RMK A01 T00821099  RH  027%=      5-min Rain = 0
KCL1 102008Z 18006KT 08/M10 A3023 RMK A01 T00811097  RH  027%=      5-min Rain = 0
KCL1 102009Z 19008KT 08/M10 A3023 RMK A01 T00821097  RH  027%=      5-min Rain = 0
KCL1 102010Z 17009KT 08/M10 A3023 RMK A01 T00821097  RH  027%=      5-min Rain = 0
KCL1 102011Z 17008KT 08/M10 A3023 RMK A01 T00831096  RH  027%=      5-min Rain = 0
KCL1 102012Z 19008KT 08/M10 A3023 RMK A01 T00821097  RH  027%=      5-min Rain = 0
KCL1 102013Z 19008KT 08/M10 A3023 RMK A01 T00831096  RH  027%=      5-min Rain = 0
KCL1 102014Z 17008KT 08/M09 A3023 RMK A01 T00841094  RH  027%=      5-min Rain = 0
KCL1 102015Z 17008KT 09/M09 A3023 RMK A01 T00861093  RH  027%=      5-min Rain = 0
KCL1 102016Z 17010KT 09/M09 A3023 RMK A01 T00861092  RH  027%=      5-min Rain = 0
KCL1 102017Z 16009KT 09/M09 A3023 RMK A01 T00871094  RH  027%=      5-min Rain = 0
KCL1 102018Z 16011KT 09/M09 A3023 RMK A01 T00861094  RH  027%=      5-min Rain = 0
KCL1 102019Z 16009KT 09/M10 A3022 RMK A01 T00851097  RH  027%=      5-min Rain = 0
KCL1 102020Z 14008KT 08/M10 A3022 RMK A01 T00831096  RH  027%=      5-min Rain = 0
KCL1 102021Z 16009KT 08/M10 A3022 RMK A01 T00831096  RH  027%=      5-min Rain = 0
KCL1 102022Z 16008KT 08/M10 A3022 RMK A01 T00821096  RH  027%=      5-min Rain = 0
KCL1 102023Z 15008KT 08/M10 A3022 RMK A01 T00821097  RH  027%=      5-min Rain = 0
KCL1 102024Z 15006KT 08/M10 A3022 RMK A01 T00831095  RH  027%=      5-min Rain = 0
KCL1 102025Z 18007KT 09/M09 A3022 RMK A01 T00851090  RH  028%=      5-min Rain = 0
KCL1 102026Z 19009KT 09/M09 A3022 RMK A01 T00861093  RH  027%=      5-min Rain = 0
KCL1 102027Z 18011KT 09/M09 A3022 RMK A01 T00861094  RH  027%=      5-min Rain = 0
KCL1 102028Z 18008KT 09/M10 A3022 RMK A01 T00851097  RH  026%=      5-min Rain = 0
KCL1 102029Z 15006KT 09/M10 A3022 RMK A01 T00851095  RH  027%=      5-min Rain = 0
KCL1 102030Z 17007KT 09/M09 A3022 RMK A01 T00861093  RH  027%=      5-min Rain = 0
KCL1 102031Z 18008KT 09/M09 A3022 RMK A01 T00871093  RH  027%=      5-min Rain = 0
KCL1 102032Z 20009KT 09/M09 A3022 RMK A01 T00891093  RH  027%=      5-min Rain = 0
KCL1 102033Z 20010KT 09/M10 A3022 RMK A01 T00881097  RH  026%=      5-min Rain = 0
KCL1 102034Z 18012KT 09/M10 A3022 RMK A01 T00861098  RH  026%=      5-min Rain = 0
KCL1 102035Z 16012KT 09/M10 A3022 RMK A01 T00851098  RH  026%=      5-min Rain = 0
KCL1 102036Z 16011KT 08/M10 A3022 RMK A01 T00841099  RH  026%=      5-min Rain = 0
KCL1 102037Z 15007KT 08/M10 A3022 RMK A01 T00821101  RH  026%=      5-min Rain = 0
KCL1 102038Z 16006G12KT 08/M10 A3022 RMK A01 T00821098  RH  027%=      5-min Rain = 0
KCL1 102039Z 15009KT 09/M10 A3022 RMK A01 T00851095  RH  027%=      5-min Rain = 0
KCL1 102040Z 17008KT 09/M10 A3022 RMK A01 T00851097  RH  027%=      5-min Rain = 0
KCL1 102041Z 17009KT 09/M10 A3022 RMK A01 T00851097  RH  026%=      5-min Rain = 0
KCL1 102042Z 16006KT 09/M10 A3022 RMK A01 T00851096  RH  027%=      5-min Rain = 0
KCL1 102043Z 16005KT 09/M09 A3022 RMK A01 T00871092  RH  027%=      5-min Rain = 0
KCL1 102044Z 16010KT 09/M09 A3022 RMK A01 T00901091  RH  027%=      5-min Rain = 0
KCL1 102045Z 18008KT 09/M10 A3022 RMK A01 T00901096  RH  026%=      5-min Rain = 0
KCL1 102046Z 17010KT 09/M10 A3022 RMK A01 T00881098  RH  026%=      5-min Rain = 0
KCL1 102047Z 16011KT 09/M10 A3022 RMK A01 T00881097  RH  026%=      5-min Rain = 0
KCL1 102048Z 14010KT 09/M10 A3022 RMK A01 T00861099  RH  026%=      5-min Rain = 0
KCL1 102049Z 17011KT 09/M10 A3022 RMK A01 T00861097  RH  026%=      5-min Rain = 0
KCL1 102050Z 18010KT 09/M10 A3022 RMK A01 T00871097  RH  026%=      5-min Rain = 0
KCL1 102051Z 17010KT 09/M10 A3022 RMK A01 T00861099  RH  026%=      5-min Rain = 0
KCL1 102052Z 16010KT 09/M10 A3022 RMK A01 T00851100  RH  026%=      5-min Rain = 0
KCL1 102053Z 16011KT 08/M10 A3022 RMK A01 T00841098  RH  026%=      5-min Rain = 0
KCL1 102054Z 15012KT 08/M10 A3022 RMK A01 T00841098  RH  026%=      5-min Rain = 0
KCL1 102055Z 15011KT 08/M10 A3022 RMK A01 T00841098  RH  026%=      5-min Rain = 0
KCL1 102056Z 17007KT 09/M10 A3023 RMK A01 T00851098  RH  026%=      5-min Rain = 0
KCL1 102057Z 17009KT 09/M10 A3023 RMK A01 T00851099  RH  026%=      5-min Rain = 0
KCL1 102058Z 19009KT 09/M10 A3023 RMK A01 T00851096  RH  027%=      5-min Rain = 0
KCL1 102059Z 18008KT 09/M10 A3023 RMK A01 T00871095  RH  026%=      5-min Rain = 0
KCL1 102100Z 20008KT 09/M10 A3023 RMK A01 T00881096  RH  026%=      5-min Rain = 0
KCL1 102101Z 17011KT 09/M10 A3023 RMK A01 T00881095  RH  026%=      5-min Rain = 0
KCL1 102102Z 15008KT 09/M10 A3023 RMK A01 T00891095  RH  026%=      5-min Rain = 0
KCL1 102103Z 17012KT 09/M09 A3023 RMK A01 T00891094  RH  026%=      5-min Rain = 0
KCL1 102104Z 16008KT 09/M10 A3023 RMK A01 T00891096  RH  026%=      5-min Rain = 0
KCL1 102105Z 16008KT 09/M10 A3023 RMK A01 T00881095  RH  026%=      5-min Rain = 0
KCL1 102106Z 15008KT 09/M09 A3023 RMK A01 T00891094  RH  026%=      5-min Rain = 0
KCL1 102107Z 15010G15KT 09/M09 A3023 RMK A01 T00891094  RH  026%=      5-min Rain = 0
KCL1 102108Z 16007KT 09/M09 A3023 RMK A01 T00891093  RH  026%=      5-min Rain = 0
KCL1 102109Z 16009KT 09/M10 A3023 RMK A01 T00901095  RH  026%=      5-min Rain = 0
KCL1 102110Z 15008KT 09/M10 A3023 RMK A01 T00881098  RH  026%=      5-min Rain = 0
KCL1 102111Z 16008KT 09/M10 A3023 RMK A01 T00871097  RH  026%=      5-min Rain = 0
KCL1 102112Z 18010KT 09/M10 A3023 RMK A01 T00871097  RH  026%=      5-min Rain = 0
KCL1 102113Z 17010KT 09/M10 A3023 RMK A01 T00871097  RH  026%=      5-min Rain = 0
KCL1 102114Z 16007KT 09/M10 A3023 RMK A01 T00861098  RH  026%=      5-min Rain = 0
KCL1 102115Z 17007G12KT 09/M10 A3023 RMK A01 T00861096  RH  026%=      5-min Rain = 0
KCL1 102116Z 17009KT 09/M10 A3023 RMK A01 T00871095  RH  026%=      5-min Rain = 0
KCL1 102117Z 17009KT 09/M10 A3023 RMK A01 T00881095  RH  026%=      5-min Rain = 0
KCL1 102118Z 17009KT 09/M10 A3023 RMK A01 T00891095  RH  026%=      5-min Rain = 0
KCL1 102119Z 18008KT 09/M10 A3023 RMK A01 T00881098  RH  026%=      5-min Rain = 0
KCL1 102120Z 19007KT 09/M10 A3023 RMK A01 T00871096  RH  026%=      5-min Rain = 0
KCL1 102121Z 17005KT 09/M09 A3023 RMK A01 T00881094  RH  027%=      5-min Rain = 0
KCL1 102122Z 15007KT 09/M09 A3023 RMK A01 T00901092  RH  027%=      5-min Rain = 0
KCL1 102123Z 16012KT 09/M09 A3023 RMK A01 T00911094  RH  026%=      5-min Rain = 0
KCL1 102124Z 16010KT 09/M10 A3023 RMK A01 T00881098  RH  026%=      5-min Rain = 0
KCL1 102125Z 16009KT 09/M10 A3023 RMK A01 T00861098  RH  026%=      5-min Rain = 0
KCL1 102126Z 16009KT 09/M10 A3023 RMK A01 T00851097  RH  026%=      5-min Rain = 0
KCL1 102127Z 15008KT 09/M10 A3023 RMK A01 T00851096  RH  027%=      5-min Rain = 0
KCL1 102128Z 19007KT 09/M09 A3023 RMK A01 T00871092  RH  027%=      5-min Rain = 0
KCL1 102129Z 19008KT 09/M09 A3023 RMK A01 T00901092  RH  027%=      5-min Rain = 0
KCL1 102130Z 19007KT 09/M09 A3023 RMK A01 T00911093  RH  026%=      5-min Rain = 0
KCL1 102131Z 19010KT 09/M10 A3023 RMK A01 T00901096  RH  026%=      5-min Rain = 0
KCL1 102132Z 17011KT 09/M10 A3023 RMK A01 T00881098  RH  026%=      5-min Rain = 0
KCL1 102133Z 17011KT 09/M10 A3023 RMK A01 T00871096  RH  026%=      5-min Rain = 0
KCL1 102134Z 17009KT 09/M10 A3023 RMK A01 T00871097  RH  026%=      5-min Rain = 0
KCL1 102135Z 17010KT 09/M10 A3023 RMK A01 T00871097  RH  026%=      5-min Rain = 0
KCL1 102136Z 17010KT 09/M10 A3023 RMK A01 T00861098  RH  026%=      5-min Rain = 0
KCL1 102137Z 16008KT 09/M10 A3023 RMK A01 T00861095  RH  027%=      5-min Rain = 0
KCL1 102138Z 17008KT 09/M10 A3023 RMK A01 T00881096  RH  026%=      5-min Rain = 0
KCL1 102139Z 17007KT 09/M10 A3023 RMK A01 T00881098  RH  026%=      5-min Rain = 0
KCL1 102140Z 18008G15KT 09/M10 A3023 RMK A01 T00881095  RH  026%=      5-min Rain = 0
KCL1 102141Z 18013KT 09/M10 A3023 RMK A01 T00891096  RH  026%=      5-min Rain = 0
KCL1 102142Z 18011KT 09/M10 A3023 RMK A01 T00881097  RH  026%=      5-min Rain = 0
KCL1 102143Z 16010KT 09/M10 A3023 RMK A01 T00871097  RH  026%=      5-min Rain = 0
KCL1 102144Z 17008KT 09/M10 A3023 RMK A01 T00871097  RH  026%=      5-min Rain = 0
KCL1 102145Z 17009KT 09/M10 A3023 RMK A01 T00861097  RH  026%=      5-min Rain = 0
KCL1 102146Z 18010KT 09/M10 A3023 RMK A01 T00871096  RH  026%=      5-min Rain = 0
KCL1 102147Z 18009KT 09/M10 A3023 RMK A01 T00871097  RH  026%=      5-min Rain = 0
KCL1 102148Z 19008KT 09/M10 A3023 RMK A01 T00861099  RH  026%=      5-min Rain = 0
KCL1 102149Z 17009KT 09/M10 A3023 RMK A01 T00861098  RH  026%=      5-min Rain = 0
KCL1 102150Z 16009KT 09/M10 A3023 RMK A01 T00871096  RH  026%=      5-min Rain = 0
KCL1 102151Z 16010KT 09/M10 A3023 RMK A01 T00871096  RH  026%=      5-min Rain = 0
KCL1 102152Z 18008KT 09/M10 A3023 RMK A01 T00871096  RH  026%=      5-min Rain = 0
KCL1 102153Z 18010KT 09/M09 A3023 RMK A01 T00881094  RH  026%=      5-min Rain = 0
KCL1 102154Z 16009KT 09/M10 A3023 RMK A01 T00881098  RH  026%=      5-min Rain = 0
KCL1 102155Z 17007KT 09/M10 A3023 RMK A01 T00861098  RH  026%=      5-min Rain = 0
KCL1 102156Z 17009KT 09/M10 A3023 RMK A01 T00861096  RH  026%=      5-min Rain = 0
KCL1 102157Z 16008KT 09/M10 A3023 RMK A01 T00871095  RH  027%=      5-min Rain = 0
KCL1 102158Z 16010KT 09/M10 A3023 RMK A01 T00871096  RH  026%=      5-min Rain = 0
KCL1 102159Z 17010KT 09/M10 A3023 RMK A01 T00871097  RH  026%=      5-min Rain = 0
KCL1 102200Z 17010KT 09/M10 A3023 RMK A01 T00871098  RH  026%=      5-min Rain = 0
KCL1 102201Z 18008KT 09/M10 A3023 RMK A01 T00861098  RH  026%=      5-min Rain = 0
KCL1 102202Z 17009KT 09/M10 A3023 RMK A01 T00861095  RH  027%=      5-min Rain = 0
KCL1 102203Z 16007KT 09/M10 A3023 RMK A01 T00871095  RH  027%=      5-min Rain = 0
KCL1 102204Z 18007KT 09/M10 A3023 RMK A01 T00871097  RH  026%=      5-min Rain = 0
KCL1 102205Z 18008KT 09/M10 A3023 RMK A01 T00871096  RH  026%=      5-min Rain = 0
KCL1 102206Z 17013KT 09/M10 A3023 RMK A01 T00871096  RH  026%=      5-min Rain = 0
KCL1 102207Z 15009KT 09/M10 A3023 RMK A01 T00871098  RH  026%=      5-min Rain = 0
KCL1 102208Z 15009KT 09/M10 A3023 RMK A01 T00861097  RH  026%=      5-min Rain = 0
KCL1 102209Z 17009KT 09/M10 A3023 RMK A01 T00861096  RH  026%=      5-min Rain = 0
KCL1 102210Z 16010KT 09/M10 A3023 RMK A01 T00861096  RH  026%=      5-min Rain = 0
KCL1 102211Z 17009KT 09/M10 A3023 RMK A01 T00861096  RH  026%=      5-min Rain = 0
KCL1 102212Z 15011KT 09/M10 A3023 RMK A01 T00851098  RH  026%=      5-min Rain = 0
KCL1 102213Z 14011KT 08/M10 A3023 RMK A01 T00841099  RH  026%=      5-min Rain = 0
KCL1 102214Z 16009KT 08/M10 A3023 RMK A01 T00841098  RH  026%=      5-min Rain = 0
KCL1 102215Z 18007KT 08/M10 A3023 RMK A01 T00841098  RH  027%=      5-min Rain = 0
KCL1 102216Z 19012KT 08/M10 A3023 RMK A01 T00841098  RH  026%=      5-min Rain = 0
KCL1 102217Z 18012KT 08/M10 A3023 RMK A01 T00841099  RH  026%=      5-min Rain = 0
KCL1 102218Z 18010KT 08/M10 A3023 RMK A01 T00841099  RH  026%=      5-min Rain = 0
KCL1 102219Z 17009KT 08/M10 A3023 RMK A01 T00831101  RH  026%=      5-min Rain = 0
KCL1 102220Z 16009KT 08/M10 A3023 RMK A01 T00831100  RH  026%=      5-min Rain = 0
KCL1 102221Z 16010KT 08/M10 A3023 RMK A01 T00831101  RH  026%=      5-min Rain = 0
KCL1 102222Z 17009KT 08/M10 A3023 RMK A01 T00831100  RH  026%=      5-min Rain = 0
KCL1 102223Z 17010KT 08/M10 A3023 RMK A01 T00831099  RH  026%=      5-min Rain = 0
KCL1 102224Z 15010KT 08/M10 A3023 RMK A01 T00831100  RH  026%=      5-min Rain = 0
KCL1 102225Z 16010KT 08/M10 A3023 RMK A01 T00821100  RH  026%=      5-min Rain = 0
KCL1 102226Z 15008KT 08/M10 A3023 RMK A01 T00821100  RH  026%=      5-min Rain = 0
KCL1 102227Z 16011KT 08/M10 A3023 RMK A01 T00821099  RH  027%=      5-min Rain = 0
KCL1 102228Z 17008KT 08/M10 A3023 RMK A01 T00821100  RH  026%=      5-min Rain = 0
KCL1 102229Z 19009KT 08/M10 A3023 RMK A01 T00831098  RH  027%=      5-min Rain = 0
KCL1 102230Z 18009KT 08/M10 A3023 RMK A01 T00831098  RH  027%=      5-min Rain = 0
KCL1 102231Z 17011KT 08/M10 A3023 RMK A01 T00841098  RH  027%=      5-min Rain = 0
KCL1 102232Z 17011KT 08/M10 A3023 RMK A01 T00831100  RH  026%=      5-min Rain = 0
KCL1 102233Z 16009KT 08/M10 A3024 RMK A01 T00821101  RH  026%=      5-min Rain = 0
KCL1 102234Z 17011KT 08/M10 A3023 RMK A01 T00811101  RH  026%=      5-min Rain = 0
KCL1 102235Z 17011KT 08/M10 A3024 RMK A01 T00811101  RH  026%=      5-min Rain = 0
KCL1 102236Z 17011KT 08/M10 A3024 RMK A01 T00811100  RH  026%=      5-min Rain = 0
KCL1 102237Z 17011KT 08/M10 A3024 RMK A01 T00811101  RH  026%=      5-min Rain = 0
KCL1 102238Z 18011KT 08/M10 A3024 RMK A01 T00801102  RH  026%=      5-min Rain = 0
KCL1 102239Z 18010KT 08/M10 A3024 RMK A01 T00801101  RH  027%=      5-min Rain = 0
KCL1 102240Z 17010KT 08/M10 A3024 RMK A01 T00801101  RH  027%=      5-min Rain = 0
KCL1 102241Z 17010KT 08/M10 A3024 RMK A01 T00801101  RH  027%=      5-min Rain = 0
KCL1 102242Z 17010KT 08/M10 A3024 RMK A01 T00791100  RH  027%=      5-min Rain = 0
KCL1 102243Z 18009KT 08/M10 A3024 RMK A01 T00791100  RH  027%=      5-min Rain = 0
KCL1 102244Z 17009KT 08/M10 A3024 RMK A01 T00791100  RH  027%=      5-min Rain = 0
KCL1 102245Z 17010KT 08/M10 A3024 RMK A01 T00791099  RH  027%=      5-min Rain = 0
KCL1 102246Z 16012KT 08/M10 A3024 RMK A01 T00801100  RH  027%=      5-min Rain = 0
KCL1 102247Z 17011KT 08/M10 A3024 RMK A01 T00791101  RH  027%=      5-min Rain = 0
KCL1 102248Z 18009KT 08/M10 A3024 RMK A01 T00781101  RH  027%=      5-min Rain = 0
KCL1 102249Z 18013KT 08/M10 A3024 RMK A01 T00781100  RH  027%=      5-min Rain = 0
KCL1 102250Z 17012KT 08/M10 A3024 RMK A01 T00791100  RH  027%=      5-min Rain = 0
KCL1 102251Z 17015KT 08/M10 A3024 RMK A01 T00781102  RH  027%=      5-min Rain = 0
KCL1 102252Z 17013KT 08/M10 A3024 RMK A01 T00771103  RH  027%=      5-min Rain = 0
KCL1 102253Z 17011KT 08/M10 A3024 RMK A01 T00771102  RH  027%=      5-min Rain = 0
KCL1 102254Z 17011KT 08/M10 A3024 RMK A01 T00771102  RH  027%=      5-min Rain = 0
KCL1 102255Z 18010KT 08/M10 A3024 RMK A01 T00761102  RH  027%=      5-min Rain = 0
KCL1 102256Z 17011KT 08/M10 A3024 RMK A01 T00761103  RH  027%=      5-min Rain = 0
KCL1 102257Z 17012KT 08/M10 A3024 RMK A01 T00761103  RH  027%=      5-min Rain = 0
KCL1 102258Z 17011KT 08/M10 A3024 RMK A01 T00761102  RH  027%=      5-min Rain = 0
KCL1 102259Z 17011KT 08/M10 A3024 RMK A01 T00761101  RH  027%=      5-min Rain = 0
KCL1 102300Z 18011KT 08/M10 A3024 RMK A01 T00751102  RH  027%=      5-min Rain = 0
KCL1 102301Z 18010KT 08/M10 A3024 RMK A01 T00751102  RH  027%=      5-min Rain = 0
KCL1 102302Z 18009KT 08/M10 A3024 RMK A01 T00751102  RH  027%=      5-min Rain = 0
KCL1 102303Z 17012KT 08/M10 A3024 RMK A01 T00751103  RH  027%=      5-min Rain = 0
KCL1 102304Z 17010KT 08/M10 A3024 RMK A01 T00751102  RH  027%=      5-min Rain = 0
KCL1 102305Z 17010KT 08/M10 A3024 RMK A01 T00751102  RH  027%=      5-min Rain = 0
KCL1 102306Z 17011KT 07/M10 A3024 RMK A01 T00741103  RH  027%=      5-min Rain = 0
KCL1 102307Z 17008KT 07/M10 A3024 RMK A01 T00741103  RH  027%=      5-min Rain = 0
KCL1 102308Z 17009KT 07/M10 A3024 RMK A01 T00731102  RH  027%=      5-min Rain = 0
KCL1 102309Z 18009KT 07/M10 A3024 RMK A01 T00731102  RH  028%=      5-min Rain = 0
KCL1 102310Z 17010KT 07/M10 A3024 RMK A01 T00731102  RH  028%=      5-min Rain = 0
KCL1 102311Z 18009KT 07/M10 A3024 RMK A01 T00721103  RH  028%=      5-min Rain = 0
KCL1 102312Z 17010KT 07/M10 A3024 RMK A01 T00721103  RH  028%=      5-min Rain = 0
KCL1 102313Z 18011KT 07/M10 A3024 RMK A01 T00721103  RH  028%=      5-min Rain = 0
KCL1 102314Z 17009KT 07/M10 A3024 RMK A01 T00721103  RH  028%=      5-min Rain = 0
KCL1 102315Z 17012KT 07/M10 A3024 RMK A01 T00721103  RH  028%=      5-min Rain = 0
KCL1 102316Z 18009KT 07/M10 A3024 RMK A01 T00711104  RH  027%=      5-min Rain = 0
KCL1 102317Z 17011KT 07/M10 A3024 RMK A01 T00711104  RH  028%=      5-min Rain = 0
KCL1 102318Z 17013KT 07/M10 A3024 RMK A01 T00701104  RH  028%=      5-min Rain = 0
KCL1 102319Z 17013KT 07/M11 A3024 RMK A01 T00701105  RH  027%=      5-min Rain = 0
KCL1 102320Z 17011KT 07/M11 A3024 RMK A01 T00701106  RH  027%=      5-min Rain = 0
KCL1 102321Z 17010KT 07/M11 A3024 RMK A01 T00701105  RH  028%=      5-min Rain = 0
KCL1 102322Z 17013KT 07/M11 A3024 RMK A01 T00691105  RH  028%=      5-min Rain = 0
KCL1 102323Z 17010KT 07/M11 A3024 RMK A01 T00691105  RH  028%=      5-min Rain = 0
KCL1 102324Z 18008KT 07/M10 A3024 RMK A01 T00691104  RH  028%=      5-min Rain = 0
KCL1 102325Z 18007KT 07/M10 A3024 RMK A01 T00681104  RH  028%=      5-min Rain = 0
KCL1 102326Z 17008KT 07/M10 A3024 RMK A01 T00671104  RH  028%=      5-min Rain = 0
KCL1 102327Z 18008KT 07/M10 A3024 RMK A01 T00661104  RH  029%=      5-min Rain = 0
KCL1 102328Z 18008KT 07/M10 A3024 RMK A01 T00651104  RH  029%=      5-min Rain = 0
KCL1 102329Z 17008KT 07/M10 A3024 RMK A01 T00651104  RH  029%=      5-min Rain = 0
KCL1 102330Z 17010KT 07/M10 A3024 RMK A01 T00651104  RH  029%=      5-min Rain = 0
KCL1 102331Z 17009KT 07/M10 A3024 RMK A01 T00651104  RH  029%=      5-min Rain = 0
KCL1 102332Z 17009KT 07/M10 A3024 RMK A01 T00651104  RH  029%=      5-min Rain = 0
KCL1 102333Z 17010KT 06/M10 A3024 RMK A01 T00641104  RH  029%=      5-min Rain = 0
KCL1 102334Z 18009KT 06/M10 A3024 RMK A01 T00641104  RH  029%=      5-min Rain = 0
KCL1 102335Z 17008KT 06/M10 A3024 RMK A01 T00631103  RH  029%=      5-min Rain = 0
KCL1 102336Z 18010KT 06/M10 A3024 RMK A01 T00621103  RH  029%=      5-min Rain = 0
KCL1 102337Z 17011KT 06/M10 A3024 RMK A01 T00621103  RH  029%=      5-min Rain = 0
KCL1 102338Z 17012G17KT 06/M10 A3024 RMK A01 T00621104  RH  029%=      5-min Rain = 0
KCL1 102339Z 17012KT 06/M10 A3024 RMK A01 T00631104  RH  029%=      5-min Rain = 0
KCL1 102340Z 17010KT 06/M10 A3024 RMK A01 T00641104  RH  029%=      5-min Rain = 0
KCL1 102341Z 17009G14KT 06/M10 A3024 RMK A01 T00641104  RH  029%=      5-min Rain = 0
KCL1 102342Z 17011KT 06/M10 A3024 RMK A01 T00631104  RH  029%=      5-min Rain = 0
KCL1 102343Z 17010KT 06/M10 A3024 RMK A01 T00641104  RH  029%=      5-min Rain = 0
KCL1 102344Z 17010KT 06/M10 A3024 RMK A01 T00631104  RH  029%=      5-min Rain = 0
KCL1 102345Z 17010KT 06/M10 A3025 RMK A01 T00631103  RH  029%=      5-min Rain = 0
KCL1 102346Z 17009KT 06/M10 A3025 RMK A01 T00621103  RH  029%=      5-min Rain = 0
KCL1 102347Z 18009KT 06/M10 A3025 RMK A01 T00621103  RH  030%=      5-min Rain = 0
KCL1 102348Z 17010KT 06/M10 A3025 RMK A01 T00611104  RH  030%=      5-min Rain = 0
KCL1 102349Z 17009KT 06/M10 A3025 RMK A01 T00611104  RH  030%=      5-min Rain = 0
KCL1 102350Z 17011KT 06/M10 A3025 RMK A01 T00601103  RH  030%=      5-min Rain = 0
KCL1 102351Z 17010KT 06/M10 A3025 RMK A01 T00601103  RH  030%=      5-min Rain = 0
KCL1 102352Z 17008KT 06/M10 A3025 RMK A01 T00601103  RH  030%=      5-min Rain = 0
KCL1 102353Z 16009KT 06/M10 A3025 RMK A01 T00601103  RH  030%=      5-min Rain = 0
KCL1 102354Z 17008KT 06/M10 A3025 RMK A01 T00591102  RH  030%=      5-min Rain = 0
KCL1 102355Z 17009KT 06/M10 A3025 RMK A01 T00591103  RH  030%=      5-min Rain = 0
KCL1 102356Z 17010KT 06/M10 A3025 RMK A01 T00591103  RH  030%=      5-min Rain = 0
KCL1 102357Z 17010KT 06/M10 A3025 RMK A01 T00591103  RH  030%=      5-min Rain = 0
KCL1 102358Z 17010KT 06/M10 A3025 RMK A01 T00591103  RH  030%=      5-min Rain = 0
KCL1 102359Z 17009KT 06/M10 A3025 RMK A01 T00591103  RH  030%=      5-min Rain = 0
KCL1 110000Z 17008KT 06/M10 A3025 RMK A01 T00581103  RH  030%=      5-min Rain = 0
KCL1 110001Z 16007KT 06/M10 A3025 RMK A01 T00581102  RH  031%=      5-min Rain = 0
KCL1 110002Z 17007KT 06/M10 A3025 RMK A01 T00571102  RH  031%=      5-min Rain = 0
KCL1 110003Z 16007KT 06/M10 A3025 RMK A01 T00561102  RH  031%=      5-min Rain = 0
KCL1 110004Z 16009KT 06/M10 A3025 RMK A01 T00551102  RH  031%=      5-min Rain = 0
KCL1 110005Z 16008KT 06/M10 A3025 RMK A01 T00551102  RH  031%=      5-min Rain = 0
KCL1 110006Z 13006KT 06/M10 A3025 RMK A01 T00551101  RH  031%=      5-min Rain = 0
KCL1 110007Z 14009KT 05/M10 A3025 RMK A01 T00531101  RH  032%=      5-min Rain = 0
KCL1 110008Z 14008KT 05/M10 A3025 RMK A01 T00511102  RH  032%=      5-min Rain = 0
KCL1 110009Z 14008KT 05/M10 A3025 RMK A01 T00491102  RH  033%=      5-min Rain = 0
KCL1 110010Z 14009KT 05/M10 A3026 RMK A01 T00461102  RH  033%=      5-min Rain = 0
KCL1 110011Z 14009KT 05/M10 A3026 RMK A01 T00451101  RH  034%=      5-min Rain = 0
KCL1 110012Z 14009KT 04/M10 A3026 RMK A01 T00431101  RH  034%=      5-min Rain = 0
KCL1 110013Z 14008KT 04/M10 A3026 RMK A01 T00421101  RH  034%=      5-min Rain = 0
KCL1 110014Z 14010KT 04/M10 A3026 RMK A01 T00421101  RH  034%=      5-min Rain = 0
KCL1 110015Z 14008KT 04/M10 A3026 RMK A01 T00421101  RH  034%=      5-min Rain = 0
KCL1 110016Z 14008KT 04/M10 A3026 RMK A01 T00421101  RH  034%=      5-min Rain = 0
KCL1 110017Z 14008KT 04/M10 A3026 RMK A01 T00421101  RH  035%=      5-min Rain = 0
KCL1 110018Z 14008KT 04/M10 A3026 RMK A01 T00411101  RH  035%=      5-min Rain = 0
KCL1 110019Z 14008KT 04/M10 A3026 RMK A01 T00401102  RH  035%=      5-min Rain = 0
KCL1 110020Z 14008KT 04/M10 A3026 RMK A01 T00401101  RH  035%=      5-min Rain = 0
KCL1 110021Z 14008KT 04/M10 A3026 RMK A01 T00391102  RH  035%=      5-min Rain = 0
KCL1 110022Z 14009KT 04/M10 A3026 RMK A01 T00381102  RH  035%=      5-min Rain = 0
KCL1 110023Z 14009KT 04/M10 A3026 RMK A01 T00381102  RH  035%=      5-min Rain = 0
KCL1 110024Z 14008KT 04/M10 A3026 RMK A01 T00381102  RH  035%=      5-min Rain = 0
KCL1 110025Z 14009KT 04/M10 A3026 RMK A01 T00381102  RH  035%=      5-min Rain = 0
KCL1 110026Z 14009KT 04/M10 A3026 RMK A01 T00381102  RH  035%=      5-min Rain = 0
KCL1 110027Z 15009KT 04/M10 A3026 RMK A01 T00381103  RH  035%=      5-min Rain = 0
KCL1 110028Z 15009KT 04/M10 A3026 RMK A01 T00381103  RH  035%=      5-min Rain = 0
KCL1 110029Z 14010KT 04/M10 A3026 RMK A01 T00391102  RH  035%=      5-min Rain = 0
KCL1 110030Z 15008KT 04/M10 A3026 RMK A01 T00391102  RH  035%=      5-min Rain = 0
KCL1 110031Z 14008KT 04/M10 A3026 RMK A01 T00381102  RH  035%=      5-min Rain = 0
KCL1 110032Z 14009KT 04/M10 A3026 RMK A01 T00381102  RH  035%=      5-min Rain = 0
KCL1 110033Z 15009KT 04/M10 A3026 RMK A01 T00371102  RH  035%=      5-min Rain = 0
KCL1 110034Z 14007KT 04/M10 A3026 RMK A01 T00361103  RH  036%=      5-min Rain = 0
KCL1 110035Z 14009KT 04/M10 A3026 RMK A01 T00361102  RH  036%=      5-min Rain = 0
KCL1 110036Z 14008KT 04/M10 A3026 RMK A01 T00361102  RH  036%=      5-min Rain = 0
KCL1 110037Z 14009KT 04/M10 A3026 RMK A01 T00361103  RH  036%=      5-min Rain = 0
KCL1 110038Z 15008KT 04/M10 A3026 RMK A01 T00361103  RH  036%=      5-min Rain = 0
KCL1 110039Z 14009KT 04/M10 A3027 RMK A01 T00361103  RH  036%=      5-min Rain = 0
KCL1 110040Z 14008KT 04/M10 A3027 RMK A01 T00351103  RH  036%=      5-min Rain = 0
KCL1 110041Z 14009KT 04/M10 A3027 RMK A01 T00351103  RH  036%=      5-min Rain = 0
KCL1 110042Z 14009KT 04/M10 A3026 RMK A01 T00351103  RH  036%=      5-min Rain = 0
KCL1 110043Z 14011KT 04/M10 A3027 RMK A01 T00351104  RH  036%=      5-min Rain = 0
KCL1 110044Z 14010KT 04/M10 A3027 RMK A01 T00351104  RH  035%=      5-min Rain = 0
KCL1 110045Z 14010KT 04/M10 A3027 RMK A01 T00361104  RH  035%=      5-min Rain = 0
KCL1 110046Z 14010KT 04/M10 A3027 RMK A01 T00361104  RH  035%=      5-min Rain = 0
KCL1 110047Z 14010KT 04/M10 A3027 RMK A01 T00361104  RH  035%=      5-min Rain = 0
KCL1 110048Z 14011KT 04/M10 A3027 RMK A01 T00361104  RH  035%=      5-min Rain = 0
KCL1 110049Z 15011KT 04/M11 A3027 RMK A01 T00361105  RH  035%=      5-min Rain = 0
KCL1 110050Z 15011KT 04/M10 A3027 RMK A01 T00371104  RH  035%=      5-min Rain = 0
KCL1 110051Z 14011KT 04/M11 A3027 RMK A01 T00371105  RH  035%=      5-min Rain = 0
KCL1 110052Z 14012KT 04/M11 A3027 RMK A01 T00371105  RH  035%=      5-min Rain = 0
KCL1 110053Z 14009KT 04/M11 A3027 RMK A01 T00381105  RH  034%=      5-min Rain = 0
KCL1 110054Z 14010KT 04/M11 A3027 RMK A01 T00381105  RH  034%=      5-min Rain = 0
KCL1 110055Z 14010KT 04/M11 A3027 RMK A01 T00371106  RH  034%=      5-min Rain = 0
KCL1 110056Z 14010KT 04/M11 A3027 RMK A01 T00371105  RH  035%=      5-min Rain = 0
KCL1 110057Z 14009KT 04/M11 A3027 RMK A01 T00371105  RH  035%=      5-min Rain = 0
KCL1 110058Z 14009KT 04/M11 A3027 RMK A01 T00361105  RH  035%=      5-min Rain = 0
KCL1 110059Z 15009KT 04/M11 A3027 RMK A01 T00351105  RH  035%=      5-min Rain = 0
KCL1 110100Z 14009KT 04/M11 A3027 RMK A01 T00351105  RH  035%=      5-min Rain = 0
KCL1 110101Z 14010KT 04/M11 A3027 RMK A01 T00351105  RH  035%=      5-min Rain = 0
KCL1 110102Z 14009KT 04/M11 A3027 RMK A01 T00351105  RH  035%=      5-min Rain = 0
KCL1 110103Z 14010KT 04/M11 A3027 RMK A01 T00351105  RH  035%=      5-min Rain = 0
KCL1 110104Z 14010KT 04/M11 A3027 RMK A01 T00351105  RH  035%=      5-min Rain = 0
KCL1 110105Z 14010KT 04/M11 A3027 RMK A01 T00351105  RH  035%=      5-min Rain = 0
KCL1 110106Z 14010KT 04/M11 A3027 RMK A01 T00351105  RH  035%=      5-min Rain = 0
KCL1 110107Z 14010KT 04/M11 A3027 RMK A01 T00351105  RH  035%=      5-min Rain = 0
KCL1 110108Z 14009KT 03/M11 A3027 RMK A01 T00341105  RH  035%=      5-min Rain = 0
KCL1 110109Z 14009KT 03/M11 A3027 RMK A01 T00331105  RH  035%=      5-min Rain = 0
KCL1 110110Z 14010KT 03/M11 A3027 RMK A01 T00331106  RH  036%=      5-min Rain = 0
KCL1 110111Z 14010KT 03/M11 A3027 RMK A01 T00321105  RH  036%=      5-min Rain = 0
KCL1 110112Z 14009KT 03/M11 A3027 RMK A01 T00321106  RH  036%=      5-min Rain = 0
KCL1 110113Z 14009KT 03/M11 A3027 RMK A01 T00321106  RH  036%=      5-min Rain = 0
KCL1 110114Z 14010KT 03/M11 A3027 RMK A01 T00321106  RH  036%=      5-min Rain = 0
KCL1 110115Z 14010KT 03/M11 A3028 RMK A01 T00311106  RH  036%=      5-min Rain = 0
KCL1 110116Z 14010KT 03/M11 A3028 RMK A01 T00311106  RH  036%=      5-min Rain = 0
KCL1 110117Z 14009KT 03/M11 A3028 RMK A01 T00321106  RH  036%=      5-min Rain = 0
KCL1 110118Z 14010KT 03/M11 A3028 RMK A01 T00311106  RH  036%=      5-min Rain = 0
KCL1 110119Z 14009KT 03/M11 A3028 RMK A01 T00311107  RH  036%=      5-min Rain = 0
KCL1 110120Z 14009KT 03/M11 A3028 RMK A01 T00311106  RH  036%=      5-min Rain = 0
KCL1 110121Z 14009KT 03/M11 A3028 RMK A01 T00311106  RH  036%=      5-min Rain = 0
KCL1 110122Z 14008KT 03/M11 A3028 RMK A01 T00311106  RH  036%=      5-min Rain = 0
KCL1 110123Z 14009KT 03/M11 A3028 RMK A01 T00301106  RH  036%=      5-min Rain = 0
KCL1 110124Z 14008KT 03/M11 A3028 RMK A01 T00301106  RH  036%=      5-min Rain = 0
KCL1 110125Z 14009KT 03/M11 A3028 RMK A01 T00301106  RH  036%=      5-min Rain = 0
KCL1 110126Z 14009KT 03/M11 A3028 RMK A01 T00301107  RH  036%=      5-min Rain = 0
KCL1 110127Z 14008KT 03/M11 A3028 RMK A01 T00301107  RH  036%=      5-min Rain = 0
KCL1 110128Z 14009KT 03/M11 A3028 RMK A01 T00291107  RH  036%=      5-min Rain = 0
KCL1 110129Z 14009KT 03/M11 A3028 RMK A01 T00291107  RH  036%=      5-min Rain = 0
KCL1 110130Z 14009KT 03/M11 A3028 RMK A01 T00291107  RH  036%=      5-min Rain = 0
KCL1 110131Z 14008KT 03/M11 A3028 RMK A01 T00281107  RH  036%=      5-min Rain = 0
KCL1 110132Z 14009KT 03/M11 A3028 RMK A01 T00281106  RH  037%=      5-min Rain = 0
KCL1 110133Z 14009KT 03/M11 A3028 RMK A01 T00271107  RH  037%=      5-min Rain = 0
KCL1 110134Z 14008KT 03/M11 A3028 RMK A01 T00271107  RH  037%=      5-min Rain = 0
KCL1 110135Z 14008KT 03/M11 A3028 RMK A01 T00261107  RH  037%=      5-min Rain = 0
KCL1 110136Z 14008KT 03/M11 A3028 RMK A01 T00251107  RH  037%=      5-min Rain = 0
KCL1 110137Z 14009KT 02/M11 A3028 RMK A01 T00241107  RH  037%=      5-min Rain = 0
KCL1 110138Z 14009KT 02/M11 A3028 RMK A01 T00241107  RH  037%=      5-min Rain = 0
KCL1 110139Z 14009KT 02/M11 A3028 RMK A01 T00241107  RH  037%=      5-min Rain = 0
KCL1 110140Z 14010KT 02/M11 A3028 RMK A01 T00241107  RH  037%=      5-min Rain = 0
KCL1 110141Z 15010KT 02/M11 A3028 RMK A01 T00241107  RH  037%=      5-min Rain = 0
KCL1 110142Z 14008KT 03/M11 A3028 RMK A01 T00251107  RH  037%=      5-min Rain = 0
KCL1 110143Z 14008KT 03/M11 A3029 RMK A01 T00261107  RH  037%=      5-min Rain = 0
KCL1 110144Z 15008KT 03/M11 A3029 RMK A01 T00251108  RH  037%=      5-min Rain = 0
KCL1 110145Z 15008KT 03/M11 A3029 RMK A01 T00261108  RH  037%=      5-min Rain = 0
KCL1 110146Z 15009KT 03/M11 A3029 RMK A01 T00251108  RH  037%=      5-min Rain = 0
KCL1 110147Z 15008KT 03/M11 A3029 RMK A01 T00251108  RH  037%=      5-min Rain = 0
KCL1 110148Z 15009KT 03/M11 A3029 RMK A01 T00261108  RH  037%=      5-min Rain = 0
KCL1 110149Z 15008KT 03/M11 A3029 RMK A01 T00261108  RH  037%=      5-min Rain = 0
KCL1 110150Z 15008KT 03/M11 A3029 RMK A01 T00261108  RH  036%=      5-min Rain = 0
KCL1 110151Z 15007KT 03/M11 A3029 RMK A01 T00261108  RH  036%=      5-min Rain = 0
KCL1 110152Z 14007KT 03/M11 A3029 RMK A01 T00251108  RH  037%=      5-min Rain = 0
KCL1 110153Z 14008KT 02/M11 A3029 RMK A01 T00241108  RH  037%=      5-min Rain = 0
KCL1 110154Z 14009KT 02/M11 A3029 RMK A01 T00241109  RH  037%=      5-min Rain = 0
KCL1 110155Z 14008KT 02/M11 A3029 RMK A01 T00241109  RH  037%=      5-min Rain = 0
KCL1 110156Z 14008KT 02/M11 A3029 RMK A01 T00241109  RH  037%=      5-min Rain = 0
KCL1 110157Z 14008KT 02/M11 A303 RMK A01 T00231109  RH  037%=      5-min Rain = 0
KCL1 110158Z 14009KT 02/M11 A303 RMK A01 T00221109  RH  037%=      5-min Rain = 0
KCL1 110159Z 15009KT 02/M11 A303 RMK A01 T00221109  RH  037%=      5-min Rain = 0
KCL1 110200Z 15008KT 02/M11 A303 RMK A01 T00221109  RH  037%=      5-min Rain = 0
KCL1 110201Z 15008KT 02/M11 A303 RMK A01 T00231109  RH  037%=      5-min Rain = 0
KCL1 110202Z 14008KT 02/M11 A303 RMK A01 T00231109  RH  037%=      5-min Rain = 0
KCL1 110203Z 15007KT 02/M11 A303 RMK A01 T00231109  RH  037%=      5-min Rain = 0
KCL1 110204Z 15009KT 02/M11 A303 RMK A01 T00221109  RH  037%=      5-min Rain = 0
KCL1 110205Z 14008KT 02/M11 A303 RMK A01 T00221109  RH  037%=      5-min Rain = 0
KCL1 110206Z 15008KT 02/M11 A303 RMK A01 T00211109  RH  038%=      5-min Rain = 0
KCL1 110207Z 14008KT 02/M11 A303 RMK A01 T00201109  RH  038%=      5-min Rain = 0
KCL1 110208Z 15009KT 02/M11 A303 RMK A01 T00201109  RH  038%=      5-min Rain = 0
KCL1 110209Z 15010KT 02/M11 A303 RMK A01 T00201109  RH  038%=      5-min Rain = 0
KCL1 110210Z 14009KT 02/M11 A303 RMK A01 T00211108  RH  038%=      5-min Rain = 0
KCL1 110211Z 15009KT 02/M11 A303 RMK A01 T00221109  RH  037%=      5-min Rain = 0
KCL1 110212Z 15011KT 02/M11 A303 RMK A01 T00221109  RH  037%=      5-min Rain = 0
KCL1 110213Z 14009KT 02/M11 A303 RMK A01 T00221109  RH  037%=      5-min Rain = 0
KCL1 110214Z 15009KT 02/M11 A303 RMK A01 T00231109  RH  037%=      5-min Rain = 0
KCL1 110215Z 15008KT 02/M11 A303 RMK A01 T00231109  RH  037%=      5-min Rain = 0
KCL1 110216Z 14008KT 02/M11 A303 RMK A01 T00221109  RH  037%=      5-min Rain = 0
KCL1 110217Z 14008KT 02/M11 A303 RMK A01 T00221110  RH  037%=      5-min Rain = 0
KCL1 110218Z 15008KT 02/M11 A303 RMK A01 T00221109  RH  037%=      5-min Rain = 0
KCL1 110219Z 15010KT 02/M11 A303 RMK A01 T00221109  RH  037%=      5-min Rain = 0
KCL1 110220Z 14009KT 02/M11 A303 RMK A01 T00221110  RH  037%=      5-min Rain = 0
KCL1 110221Z 14009KT 02/M11 A303 RMK A01 T00221109  RH  037%=      5-min Rain = 0
KCL1 110222Z 15011KT 02/M11 A303 RMK A01 T00221109  RH  037%=      5-min Rain = 0
KCL1 110223Z 15011KT 02/M11 A303 RMK A01 T00211110  RH  037%=      5-min Rain = 0
KCL1 110224Z 15012KT 02/M11 A303 RMK A01 T00221110  RH  037%=      5-min Rain = 0
KCL1 110225Z 14011KT 02/M11 A303 RMK A01 T00241110  RH  037%=      5-min Rain = 0
KCL1 110226Z 14010KT 03/M11 A303 RMK A01 T00251110  RH  036%=      5-min Rain = 0
KCL1 110227Z 15010KT 02/M11 A303 RMK A01 T00241110  RH  036%=      5-min Rain = 0
KCL1 110228Z 14010KT 02/M11 A303 RMK A01 T00231110  RH  037%=      5-min Rain = 0
KCL1 110229Z 15010KT 02/M11 A303 RMK A01 T00231110  RH  037%=      5-min Rain = 0
KCL1 110230Z 14010KT 02/M11 A303 RMK A01 T00221110  RH  037%=      5-min Rain = 0
KCL1 110231Z 14009KT 02/M11 A303 RMK A01 T00221110  RH  037%=      5-min Rain = 0
KCL1 110232Z 14010KT 02/M11 A303 RMK A01 T00221110  RH  037%=      5-min Rain = 0
KCL1 110233Z 14009KT 02/M11 A303 RMK A01 T00211110  RH  037%=      5-min Rain = 0
KCL1 110234Z 14010KT 02/M11 A303 RMK A01 T00201110  RH  037%=      5-min Rain = 0
KCL1 110235Z 14010KT 02/M11 A303 RMK A01 T00201110  RH  037%=      5-min Rain = 0
KCL1 110236Z 14009KT 02/M11 A303 RMK A01 T00201111  RH  037%=      5-min Rain = 0
KCL1 110237Z 14010KT 02/M11 A303 RMK A01 T00201110  RH  037%=      5-min Rain = 0
KCL1 110238Z 14010KT 02/M11 A303 RMK A01 T00201110  RH  038%=      5-min Rain = 0
KCL1 110239Z 14010KT 02/M11 A303 RMK A01 T00191110  RH  038%=      5-min Rain = 0
KCL1 110240Z 14009KT 02/M11 A303 RMK A01 T00201110  RH  038%=      5-min Rain = 0
KCL1 110241Z 15009KT 02/M11 A303 RMK A01 T00191110  RH  038%=      5-min Rain = 0
KCL1 110242Z 14010KT 02/M11 A303 RMK A01 T00191110  RH  038%=      5-min Rain = 0
KCL1 110243Z 14010KT 02/M11 A303 RMK A01 T00191110  RH  038%=      5-min Rain = 0
KCL1 110244Z 15009KT 02/M11 A303 RMK A01 T00191110  RH  038%=      5-min Rain = 0
KCL1 110245Z 14011KT 02/M11 A303 RMK A01 T00181111  RH  038%=      5-min Rain = 0
KCL1 110246Z 14010KT 02/M11 A303 RMK A01 T00181111  RH  038%=      5-min Rain = 0
KCL1 110247Z 14010KT 02/M11 A303 RMK A01 T00181111  RH  038%=      5-min Rain = 0
KCL1 110248Z 14011KT 02/M11 A303 RMK A01 T00181110  RH  038%=      5-min Rain = 0
KCL1 110249Z 14010KT 02/M11 A303 RMK A01 T00181110  RH  038%=      5-min Rain = 0
KCL1 110250Z 14011KT 02/M11 A303 RMK A01 T00181110  RH  038%=      5-min Rain = 0
KCL1 110251Z 14010KT 02/M11 A303 RMK A01 T00181111  RH  038%=      5-min Rain = 0
KCL1 110252Z 14010KT 02/M11 A303 RMK A01 T00181110  RH  038%=      5-min Rain = 0
KCL1 110253Z 14010KT 02/M11 A303 RMK A01 T00181111  RH  038%=      5-min Rain = 0
KCL1 110254Z 14010KT 02/M11 A303 RMK A01 T00171111  RH  038%=      5-min Rain = 0
KCL1 110255Z 14010KT 02/M11 A303 RMK A01 T00171111  RH  038%=      5-min Rain = 0
KCL1 110256Z 14010KT 02/M11 A303 RMK A01 T00171111  RH  038%=      5-min Rain = 0
KCL1 110257Z 14010KT 02/M11 A303 RMK A01 T00171111  RH  038%=      5-min Rain = 0
KCL1 110258Z 14010KT 02/M11 A303 RMK A01 T00171111  RH  038%=      5-min Rain = 0
KCL1 110259Z 14009KT 02/M11 A303 RMK A01 T00171111  RH  038%=      5-min Rain = 0
KCL1 110300Z 14010KT 02/M11 A303 RMK A01 T00171110  RH  038%=      5-min Rain = 0
KCL1 110301Z 14010KT 02/M11 A303 RMK A01 T00171110  RH  038%=      5-min Rain = 0
KCL1 110302Z 14009KT 02/M11 A303 RMK A01 T00161111  RH  038%=      5-min Rain = 0
KCL1 110303Z 14009KT 02/M11 A3031 RMK A01 T00151110  RH  039%=      5-min Rain = 0
KCL1 110304Z 14009KT 02/M11 A3031 RMK A01 T00151111  RH  039%=      5-min Rain = 0
KCL1 110305Z 14010KT 01/M11 A3031 RMK A01 T00141111  RH  039%=      5-min Rain = 0
KCL1 110306Z 14009KT 01/M11 A3031 RMK A01 T00141111  RH  039%=      5-min Rain = 0
KCL1 110307Z 14010KT 01/M11 A3031 RMK A01 T00141110  RH  039%=      5-min Rain = 0
KCL1 110308Z 14010KT 01/M11 A3031 RMK A01 T00141110  RH  039%=      5-min Rain = 0
KCL1 110309Z 14009KT 01/M11 A3031 RMK A01 T00141110  RH  039%=      5-min Rain = 0
KCL1 110310Z 14010KT 01/M11 A3031 RMK A01 T00141110  RH  039%=      5-min Rain = 0
KCL1 110311Z 14010KT 01/M11 A3031 RMK A01 T00131111  RH  039%=      5-min Rain = 0
KCL1 110312Z 14010KT 01/M11 A3031 RMK A01 T00131110  RH  039%=      5-min Rain = 0
KCL1 110313Z 14009KT 01/M11 A3031 RMK A01 T00131110  RH  039%=      5-min Rain = 0
KCL1 110314Z 14009KT 01/M11 A3031 RMK A01 T00131110  RH  040%=      5-min Rain = 0
KCL1 110315Z 14009KT 01/M11 A3031 RMK A01 T00121110  RH  040%=      5-min Rain = 0
KCL1 110316Z 14009KT 01/M11 A3031 RMK A01 T00121110  RH  040%=      5-min Rain = 0
KCL1 110317Z 14009KT 01/M11 A3031 RMK A01 T00121110  RH  040%=      5-min Rain = 0
KCL1 110318Z 14009KT 01/M11 A3031 RMK A01 T00121110  RH  040%=      5-min Rain = 0
KCL1 110319Z 14009KT 01/M11 A3031 RMK A01 T00121110  RH  040%=      5-min Rain = 0
KCL1 110320Z 14009KT 01/M11 A3031 RMK A01 T00121110  RH  040%=      5-min Rain = 0
KCL1 110321Z 14009KT 01/M11 A3031 RMK A01 T00121110  RH  040%=      5-min Rain = 0
KCL1 110322Z 15008KT 01/M11 A3031 RMK A01 T00111110  RH  040%=      5-min Rain = 0
KCL1 110323Z 14008KT 01/M11 A3031 RMK A01 T00111110  RH  040%=      5-min Rain = 0
KCL1 110324Z 15008KT 01/M11 A3031 RMK A01 T00101110  RH  040%=      5-min Rain = 0
KCL1 110325Z 14009KT 01/M11 A3031 RMK A01 T00091110  RH  040%=      5-min Rain = 0
KCL1 110326Z 15008KT 01/M11 A3031 RMK A01 T00091110  RH  040%=      5-min Rain = 0
KCL1 110327Z 14009KT 01/M11 A3031 RMK A01 T00091111  RH  040%=      5-min Rain = 0
KCL1 110328Z 14009KT 01/M11 A3031 RMK A01 T00101110  RH  040%=      5-min Rain = 0
KCL1 110329Z 14008KT 01/M11 A3031 RMK A01 T00101110  RH  040%=      5-min Rain = 0
KCL1 110330Z 14009KT 01/M11 A3031 RMK A01 T00101110  RH  040%=      5-min Rain = 0
KCL1 110331Z 14009KT 01/M11 A3031 RMK A01 T00091110  RH  041%=      5-min Rain = 0
KCL1 110332Z 15009KT 01/M11 A3031 RMK A01 T00081110  RH  041%=      5-min Rain = 0
KCL1 110333Z 15009KT 01/M11 A3031 RMK A01 T00081110  RH  041%=      5-min Rain = 0
KCL1 110334Z 14009KT 01/M11 A3031 RMK A01 T00081110  RH  041%=      5-min Rain = 0
KCL1 110335Z 14009KT 01/M11 A3031 RMK A01 T00071110  RH  041%=      5-min Rain = 0
KCL1 110336Z 14009KT 01/M11 A3031 RMK A01 T00081110  RH  041%=      5-min Rain = 0
KCL1 110337Z 14009KT 01/M11 A3031 RMK A01 T00081110  RH  041%=      5-min Rain = 0
KCL1 110338Z 14008KT 01/M11 A3031 RMK A01 T00081110  RH  041%=      5-min Rain = 0
KCL1 110339Z 14009KT 01/M11 A3031 RMK A01 T00081110  RH  041%=      5-min Rain = 0
KCL1 110340Z 14008KT 01/M11 A3031 RMK A01 T00081110  RH  041%=      5-min Rain = 0
KCL1 110341Z 14008KT 01/M11 A3031 RMK A01 T00081110  RH  041%=      5-min Rain = 0
KCL1 110342Z 14009KT 01/M11 A3031 RMK A01 T00081110  RH  041%=      5-min Rain = 0
KCL1 110343Z 14008KT 01/M11 A3031 RMK A01 T00081110  RH  041%=      5-min Rain = 0
KCL1 110344Z 14008KT 01/M11 A3031 RMK A01 T00071110  RH  041%=      5-min Rain = 0
KCL1 110345Z 14008KT 01/M11 A3031 RMK A01 T00071110  RH  041%=      5-min Rain = 0
KCL1 110346Z 14008KT 01/M11 A3031 RMK A01 T00071110  RH  041%=      5-min Rain = 0
KCL1 110347Z 14008KT 01/M11 A3031 RMK A01 T00071110  RH  041%=      5-min Rain = 0
KCL1 110348Z 14008KT 01/M11 A3031 RMK A01 T00071110  RH  041%=      5-min Rain = 0
KCL1 110349Z 14009KT 01/M11 A3031 RMK A01 T00071110  RH  041%=      5-min Rain = 0
KCL1 110350Z 14007KT 01/M11 A3031 RMK A01 T00071110  RH  041%=      5-min Rain = 0
KCL1 110351Z 14008KT 01/M11 A3031 RMK A01 T00071110  RH  041%=      5-min Rain = 0
KCL1 110352Z 14008KT 01/M11 A3031 RMK A01 T00061111  RH  041%=      5-min Rain = 0
KCL1 110353Z 14008KT 01/M11 A3031 RMK A01 T00061110  RH  041%=      5-min Rain = 0
KCL1 110354Z 14008KT 01/M11 A3031 RMK A01 T00051110  RH  042%=      5-min Rain = 0
KCL1 110355Z 14009KT 01/M11 A3031 RMK A01 T00051110  RH  042%=      5-min Rain = 0
KCL1 110356Z 14009KT 01/M11 A3031 RMK A01 T00051110  RH  042%=      5-min Rain = 0
KCL1 110357Z 14009KT 01/M11 A3031 RMK A01 T00051110  RH  042%=      5-min Rain = 0
KCL1 110358Z 14009KT 00/M11 A3031 RMK A01 T00041110  RH  042%=      5-min Rain = 0
KCL1 110359Z 14009KT 00/M11 A3031 RMK A01 T00041110  RH  042%=      5-min Rain = 0
KCL1 110400Z 15008KT 00/M11 A3031 RMK A01 T00031110  RH  042%=      5-min Rain = 0
KCL1 110401Z 15008KT 00/M11 A3031 RMK A01 T00041110  RH  042%=      5-min Rain = 0
KCL1 110402Z 15008KT 00/M11 A3031 RMK A01 T00041110  RH  042%=      5-min Rain = 0
KCL1 110403Z 14008KT 00/M11 A3031 RMK A01 T00041110  RH  042%=      5-min Rain = 0
KCL1 110404Z 14008KT 00/M11 A3031 RMK A01 T00031110  RH  042%=      5-min Rain = 0
KCL1 110405Z 15007KT 00/M11 A3031 RMK A01 T00031110  RH  042%=      5-min Rain = 0
KCL1 110406Z 14007KT 00/M11 A3031 RMK A01 T00031110  RH  042%=      5-min Rain = 0
KCL1 110407Z 15007KT 00/M11 A3031 RMK A01 T00021111  RH  042%=      5-min Rain = 0
KCL1 110408Z 14007KT 00/M11 A3031 RMK A01 T00021110  RH  043%=      5-min Rain = 0
KCL1 110409Z 14007KT 00/M11 A3031 RMK A01 T00021110  RH  043%=      5-min Rain = 0
KCL1 110410Z 14008KT 00/M11 A3031 RMK A01 T00021110  RH  043%=      5-min Rain = 0
KCL1 110411Z 15007KT 00/M11 A3031 RMK A01 T00011110  RH  043%=      5-min Rain = 0
KCL1 110412Z 15008KT 00/M11 A3031 RMK A01 T00021110  RH  043%=      5-min Rain = 0
KCL1 110413Z 14007KT 00/M11 A3031 RMK A01 T00031110  RH  043%=      5-min Rain = 0
KCL1 110414Z 15007KT 00/M11 A3031 RMK A01 T00031110  RH  042%=      5-min Rain = 0
KCL1 110415Z 15007KT 00/M11 A3031 RMK A01 T00041110  RH  042%=      5-min Rain = 0
KCL1 110416Z 15007KT 00/M11 A3031 RMK A01 T00041110  RH  042%=      5-min Rain = 0
KCL1 110417Z 15007KT 00/M11 A3031 RMK A01 T00041110  RH  042%=      5-min Rain = 0
KCL1 110418Z 15007KT 00/M11 A3032 RMK A01 T00031110  RH  042%=      5-min Rain = 0
KCL1 110419Z 15007KT 00/M11 A3032 RMK A01 T00031110  RH  042%=      5-min Rain = 0
KCL1 110420Z 15006KT 00/M11 A3032 RMK A01 T00031110  RH  042%=      5-min Rain = 0
KCL1 110421Z 15006KT 00/M11 A3032 RMK A01 T00021110  RH  043%=      5-min Rain = 0
KCL1 110422Z 15006KT 00/M11 A3032 RMK A01 T00011111  RH  043%=      5-min Rain = 0
KCL1 110423Z 15006KT 00/11 A3032 RMK A01 T00000-111  RH  043%=      5-min Rain = 0
KCL1 110424Z 16006KT M00/M11 A3032 RMK A01 T10011111  RH  043%=      5-min Rain = 0
KCL1 110425Z 16006KT M00/M11 A3032 RMK A01 T10021111  RH  044%=      5-min Rain = 0
KCL1 110426Z 16005KT M00/M11 A3032 RMK A01 T10031112  RH  044%=      5-min Rain = 0
KCL1 110427Z 16005KT M00/M11 A3032 RMK A01 T10031112  RH  044%=      5-min Rain = 0
KCL1 110428Z 16005KT M00/M11 A3032 RMK A01 T10031111  RH  044%=      5-min Rain = 0
KCL1 110429Z 16005KT M00/M11 A3032 RMK A01 T10031111  RH  044%=      5-min Rain = 0
KCL1 110430Z 17005KT M00/M11 A3032 RMK A01 T10031111  RH  044%=      5-min Rain = 0
KCL1 110431Z 17005KT M00/M11 A3032 RMK A01 T10041112  RH  044%=      5-min Rain = 0
KCL1 110432Z 17005KT M00/M11 A3032 RMK A01 T10041112  RH  044%=      5-min Rain = 0
KCL1 110433Z 17005KT M00/M11 A3032 RMK A01 T10041112  RH  044%=      5-min Rain = 0
KCL1 110434Z 17005KT M00/M11 A3032 RMK A01 T10031112  RH  044%=      5-min Rain = 0
KCL1 110435Z 17005KT M00/M11 A3032 RMK A01 T10031112  RH  044%=      5-min Rain = 0
KCL1 110436Z 17005KT M00/M11 A3032 RMK A01 T10031111  RH  044%=      5-min Rain = 0
KCL1 110437Z 17005KT M00/M11 A3032 RMK A01 T10031112  RH  044%=      5-min Rain = 0
KCL1 110438Z 17006KT M00/M11 A3032 RMK A01 T10031112  RH  044%=      5-min Rain = 0
KCL1 110439Z 17006KT M00/M11 A3032 RMK A01 T10031111  RH  044%=      5-min Rain = 0
KCL1 110440Z 17006KT M00/M11 A3032 RMK A01 T10031112  RH  044%=      5-min Rain = 0
KCL1 110441Z 17006KT M00/M11 A3032 RMK A01 T10031111  RH  044%=      5-min Rain = 0
KCL1 110442Z 17006KT M00/M11 A3032 RMK A01 T10031111  RH  044%=      5-min Rain = 0
KCL1 110443Z 17007KT M00/M11 A3032 RMK A01 T10041111  RH  044%=      5-min Rain = 0
KCL1 110444Z 17007KT M00/M11 A3032 RMK A01 T10041111  RH  044%=      5-min Rain = 0
KCL1 110445Z 17006KT M01/M11 A3032 RMK A01 T10051111  RH  045%=      5-min Rain = 0
KCL1 110446Z 17006KT M01/M11 A3032 RMK A01 T10061111  RH  045%=      5-min Rain = 0
KCL1 110447Z 17006KT M01/M11 A3032 RMK A01 T10061111  RH  045%=      5-min Rain = 0
KCL1 110448Z 17005KT M01/M11 A3032 RMK A01 T10071111  RH  045%=      5-min Rain = 0
KCL1 110449Z 17006KT M01/M11 A3032 RMK A01 T10071110  RH  045%=      5-min Rain = 0
KCL1 110450Z 17006KT M01/M11 A3032 RMK A01 T10061110  RH  045%=      5-min Rain = 0
KCL1 110451Z 17006KT M01/M11 A3032 RMK A01 T10061110  RH  045%=      5-min Rain = 0
KCL1 110452Z 17006KT M01/M11 A3032 RMK A01 T10051110  RH  045%=      5-min Rain = 0
KCL1 110453Z 18006KT M01/M11 A3032 RMK A01 T10051110  RH  045%=      5-min Rain = 0
KCL1 110454Z 17006KT M01/M11 A3032 RMK A01 T10051109  RH  045%=      5-min Rain = 0
KCL1 110455Z 17006KT M01/M11 A3032 RMK A01 T10051110  RH  045%=      5-min Rain = 0
KCL1 110456Z 17007KT M01/M11 A3032 RMK A01 T10051109  RH  045%=      5-min Rain = 0
KCL1 110457Z 17006KT M00/M11 A3032 RMK A01 T10041109  RH  045%=      5-min Rain = 0
KCL1 110458Z 17006KT M00/M11 A3032 RMK A01 T10041109  RH  045%=      5-min Rain = 0
KCL1 110459Z 17006KT M00/M11 A3032 RMK A01 T10041109  RH  045%=      5-min Rain = 0
KCL1 110500Z 16006KT M00/M11 A3032 RMK A01 T10041109  RH  045%=      5-min Rain = 0
KCL1 110501Z 17006KT M01/M11 A3032 RMK A01 T10051109  RH  045%=      5-min Rain = 0
KCL1 110502Z 16006KT M01/M11 A3032 RMK A01 T10051109  RH  045%=      5-min Rain = 0
KCL1 110503Z 17006KT M01/M11 A3032 RMK A01 T10051109  RH  045%=      5-min Rain = 0
KCL1 110504Z 17006KT M01/M11 A3033 RMK A01 T10051109  RH  045%=      5-min Rain = 0
KCL1 110505Z 17006KT M01/M11 A3033 RMK A01 T10051109  RH  045%=      5-min Rain = 0
KCL1 110506Z 17006KT M01/M11 A3033 RMK A01 T10061109  RH  046%=      5-min Rain = 0
KCL1 110507Z 17005KT M01/M11 A3033 RMK A01 T10061109  RH  046%=      5-min Rain = 0
KCL1 110508Z 17006KT M01/M11 A3033 RMK A01 T10061109  RH  046%=      5-min Rain = 0
KCL1 110509Z 17006KT M01/M11 A3033 RMK A01 T10071109  RH  046%=      5-min Rain = 0
KCL1 110510Z 17006KT M01/M11 A3032 RMK A01 T10071109  RH  046%=      5-min Rain = 0
KCL1 110511Z 16006KT M01/M11 A3032 RMK A01 T10071109  RH  046%=      5-min Rain = 0
KCL1 110512Z 17006KT M01/M11 A3032 RMK A01 T10071109  RH  046%=      5-min Rain = 0
KCL1 110513Z 17006KT M01/M11 A3032 RMK A01 T10071109  RH  046%=      5-min Rain = 0
KCL1 110514Z 17006KT M01/M11 A3032 RMK A01 T10071109  RH  046%=      5-min Rain = 0
KCL1 110515Z 16007KT M01/M11 A3032 RMK A01 T10061109  RH  046%=      5-min Rain = 0
KCL1 110516Z 16007KT M01/M11 A3032 RMK A01 T10061109  RH  046%=      5-min Rain = 0
KCL1 110517Z 17007KT M01/M11 A3032 RMK A01 T10061109  RH  045%=      5-min Rain = 0
KCL1 110518Z 17006KT M01/M11 A3032 RMK A01 T10061110  RH  045%=      5-min Rain = 0
KCL1 110519Z 17006KT M01/M11 A3032 RMK A01 T10051109  RH  046%=      5-min Rain = 0
KCL1 110520Z 17006KT M01/M11 A3032 RMK A01 T10061109  RH  046%=      5-min Rain = 0
KCL1 110521Z 16006KT M01/M11 A3032 RMK A01 T10061109  RH  046%=      5-min Rain = 0
KCL1 110522Z 17006KT M01/M11 A3032 RMK A01 T10051109  RH  045%=      5-min Rain = 0
KCL1 110523Z 17006KT M01/M11 A3032 RMK A01 T10051109  RH  045%=      5-min Rain = 0
KCL1 110524Z 17006KT M01/M11 A3032 RMK A01 T10051109  RH  045%=      5-min Rain = 0
KCL1 110525Z 17005KT M01/M11 A3032 RMK A01 T10051109  RH  045%=      5-min Rain = 0
KCL1 110526Z 17005KT M01/M11 A3032 RMK A01 T10051109  RH  045%=      5-min Rain = 0
KCL1 110527Z 17006KT M00/M11 A3032 RMK A01 T10041108  RH  045%=      5-min Rain = 0
KCL1 110528Z 18006KT M01/M11 A3032 RMK A01 T10051109  RH  045%=      5-min Rain = 0
KCL1 110529Z 18005KT M01/M11 A3032 RMK A01 T10051109  RH  045%=      5-min Rain = 0
KCL1 110530Z 18005KT M00/M11 A3032 RMK A01 T10031108  RH  045%=      5-min Rain = 0
KCL1 110531Z 18005KT M00/M11 A3032 RMK A01 T10031108  RH  045%=      5-min Rain = 0
KCL1 110532Z 18005KT M00/M11 A3032 RMK A01 T10021108  RH  045%=      5-min Rain = 0
KCL1 110533Z 18005KT M00/M11 A3032 RMK A01 T10011108  RH  044%=      5-min Rain = 0
KCL1 110534Z 18005KT M00/M11 A3032 RMK A01 T10011109  RH  044%=      5-min Rain = 0
KCL1 110535Z 18005KT M00/M11 A3032 RMK A01 T10011109  RH  044%=      5-min Rain = 0
KCL1 110536Z 18006KT M00/M11 A3032 RMK A01 T10011109  RH  044%=      5-min Rain = 0
KCL1 110537Z 17005KT M00/M11 A3032 RMK A01 T10021109  RH  044%=      5-min Rain = 0
KCL1 110538Z 18005KT M00/M11 A3032 RMK A01 T10021109  RH  044%=      5-min Rain = 0
KCL1 110539Z 18006KT M00/M11 A3032 RMK A01 T10021109  RH  044%=      5-min Rain = 0
KCL1 110540Z 18005KT M00/M11 A3032 RMK A01 T10031109  RH  045%=      5-min Rain = 0
KCL1 110541Z 18005KT M00/M11 A3032 RMK A01 T10031109  RH  045%=      5-min Rain = 0
KCL1 110542Z 18005KT M00/M11 A3032 RMK A01 T10041109  RH  045%=      5-min Rain = 0
KCL1 110543Z 18005KT M00/M11 A3032 RMK A01 T10041109  RH  045%=      5-min Rain = 0
KCL1 110544Z 18005KT M00/M11 A3032 RMK A01 T10041109  RH  045%=      5-min Rain = 0
KCL1 110545Z 19005KT M01/M11 A3032 RMK A01 T10051109  RH  045%=      5-min Rain = 0
KCL1 110546Z 19005KT M00/M11 A3032 RMK A01 T10041108  RH  045%=      5-min Rain = 0
KCL1 110547Z 19005KT M00/M11 A3032 RMK A01 T10041108  RH  045%=      5-min Rain = 0
KCL1 110548Z 19005KT M00/M11 A3032 RMK A01 T10041108  RH  045%=      5-min Rain = 0
KCL1 110549Z 19004KT M00/M11 A3032 RMK A01 T10041108  RH  045%=      5-min Rain = 0
KCL1 110550Z 20004KT M00/M11 A3032 RMK A01 T10041108  RH  045%=      5-min Rain = 0
KCL1 110551Z 19004KT M01/M11 A3032 RMK A01 T10051108  RH  045%=      5-min Rain = 0
KCL1 110552Z 20004KT M01/M11 A3032 RMK A01 T10051109  RH  045%=      5-min Rain = 0
KCL1 110553Z 21003KT M01/M11 A3032 RMK A01 T10051109  RH  045%=      5-min Rain = 0
KCL1 110554Z 20004KT M01/M11 A3032 RMK A01 T10051108  RH  046%=      5-min Rain = 0
KCL1 110555Z 19004KT M00/M11 A3032 RMK A01 T10041108  RH  046%=      5-min Rain = 0
KCL1 110556Z 19004KT M00/M11 A3032 RMK A01 T10041108  RH  046%=      5-min Rain = 0
KCL1 110557Z 19004KT M01/M11 A3032 RMK A01 T10051108  RH  046%=      5-min Rain = 0
KCL1 110558Z 19005KT M01/M11 A3032 RMK A01 T10051108  RH  046%=      5-min Rain = 0
KCL1 110559Z 19005KT M01/M11 A3032 RMK A01 T10051108  RH  046%=      5-min Rain = 0

Page generated in 0.0764 seconds.